     2              OBSERVATION DATA    GPS                 RINEX VERSION / TYPE
teqc 1997Sep10 19971030 21:24:34UTC                         PGM / RUN BY / DATE
                                                            COMMENT
BIT 2 OF LLI FLAGS DATA COLLECTED UNDER A-S CONDITION       COMMENT
BIT 2 OF LLI FLAGS DATA COLLECTED UNDER A-S CONDITION       COMMENT
Original Marker Name: 55445.BLAC                            COMMENT
Campaign Name: NGS Imperial Valley 1990                     COMMENT
4-Character Station Name: BLAC                              COMMENT
6-Character Antenna Code: TI4100                            COMMENT
Vertical Measurement Point: PAE                             COMMENT
Vertical Offset to Rinex Ref. Point: 0.0000                 COMMENT
Radial Measurement Point: RRP                               COMMENT
Radial Offset to Rinex Ref. Point: 0.0000                   COMMENT
Antenna Height from Field Measurement: 1.6020 m             COMMENT
Original XYZ: -2434082.6476 -5040859.3904 3706633.4823      COMMENT
New XYZ position is based on association with SCEC monument COMMENT
E1D0M3T8+0011. Position of that monument is believed to be  COMMENT
valid to within 1 m horizontally; vertical accuracy         COMMENT
should be no worse than 3-times this value.                 COMMENT
                                                            COMMENT
Revised Rinex header created by UCSD GPS archive for        COMMENT
GSAC on 12-Apr-1999 (1999:102) 13:06:19 GMT                 COMMENT
For assistance contact dagnew@ucsd.edu or hjohnson@ucsd.edu COMMENT
                                                            COMMENT
BLACK BUTTE NCMN 1982                                       MARKER NAME
05 NATIONAL GEODETIC SURVEY                                 OBSERVER / AGENCY
0089 TI 4100 1.9                                            REC # / TYPE / VERS
4078 TI 4100                                                ANT # / TYPE
 -2306307.0000 -4787914.0000  3515736.0000                  APPROX POSITION XYZ
        1.6020        0.0000        0.0000                  ANTENNA: DELTA H/E/N
     1     1     0                                          WAVELENGTH FACT L1/2
     4    P1    P2    L1    L2                              # / TYPES OF OBSERV
    15                                                      INTERVAL
  1990     3     1     8    28   59.000000                  TIME OF FIRST OBS
  1990     3     1    10    12   59.000000                  TIME OF LAST OBS
     0                                                      # OF SATELLITES
                                                            END OF HEADER
 90  3  1  8 28 59.0800000  0  4G 3G12G19G13
  20911737.154    20911739.142    24149448.767 9 -49860422.733 8
  20986298.135    20986301.452    52044741.413 9 -73880704.638 9
  21803302.891    21803305.835    13349956.029 9 -22125181.474 7
  20779619.478    20779621.945    74376448.289 9-126510601.325 7
 90  3  1  8 29 14.0800000  0  4G 3G12G19G13
  20908284.504    20908286.538    24131302.351 9 -49874562.773 8
  20993264.908    20993270.386    52081354.282 9 -73852175.158 8
  21802362.684    21802364.877    13345013.786 8 -22129032.573 8
  20782318.957    20782321.238    74390629.096 9-126499551.362 8
 90  3  1  8 29 29.0800000  0  4G 3G12G19G13
  20904836.800    20904840.527    24113188.049 9 -49888677.815 8
  21000250.570    21000254.574    52118066.834 9 -73823567.993 8
  21801448.341    21801450.362    13340206.078 9 -22132778.836 9
  20785020.125    20785023.215    74404826.429 9-126488488.531 8
 90  3  1  8 29 44.0800000  0  4G 3G12G19G13
  20901395.136    20901398.083    24095106.102 9 -49902767.622 8
  21007256.579    21007260.527    52154878.868 9 -73794883.311 8
  21800557.666    21800560.331    13335532.800 8 -22136420.363 8
  20787724.491    20787727.338    74419040.120 8-126477412.932 8
 90  3  1  8 29 59.0800000  0  4G 3G12G19G13
  20897960.432    20897964.016    24077056.137 9 -49916832.527 8
  21014279.560    21014283.993    52191789.780 9 -73766121.575 8
  21799695.194    21799697.766    13330993.817 9 -22139957.230 8
  20790432.981    20790436.450    74433270.205 9-126466324.578 8
 90  3  1  8 30 14.0800000  0  4G 3G12G19G13
  20894532.079    20894536.152    24059038.129 9 -49930872.507 8
  21021322.888    21021326.606    52228799.283 9 -73737283.021 9
  21798857.241    21798859.333    13326588.980 9 -22143389.579 8
  20793143.890    20793146.586    74447516.662 9-126455223.457 8
 90  3  1  8 30 29.0800000  0  4G 3G12G19G13
  20891109.378    20891112.067    24041052.206 9 -49944887.494 8
  21028384.045    21028389.051    52265907.115 9 -73708367.851 9
  21798044.393    21798046.729    13322318.527 8 -22146717.220 8
  20795858.222    20795860.206    74461779.533 9-126444109.542 7
 90  3  1  8 30 44.0800000  0  4G 3G12G19G13
  20887691.573    20887694.638    24023098.260 9 -49958877.580 8
  21035464.806    21035467.880    52303113.018 9 -73679376.254 7
  21797255.684    21797260.146    13318182.309 9 -22149940.243 8
  20798574.336    20798578.076    74476058.817 9-126432982.854 8
 90  3  1  8 30 59.0800000  0  4G 3G12G19G13
  20884282.219    20884285.953    24005176.184 9 -49972842.785 8
  21042563.367    21042568.273    52340416.351 9 -73650308.736 8
  21796494.686    21796497.158    13314180.254 9 -22153058.731 8
  20801295.043    20801298.784    74490354.036 9-126421843.746 8
 90  3  1  8 31 14.0800000  0  4G 3G12G19G13
  20880878.545    20880881.238    23987286.202 9 -49986782.999 8
  21049679.930    21049684.134    52377816.848 9 -73621165.509 7
  21795758.421    21795761.337    13310312.681 8 -22156072.429 8
  20804019.159    20804022.849    74504665.434 9-126410692.038 9
 90  3  1  8 31 29.0800000  0  4G 3G12G19G13
  20877480.838    20877481.782    23969427.918 9 -50000698.537 8
  21056815.809    21056820.329    52415314.098 9 -73591946.897 9
  21795047.584    21795052.023    13306579.082 8 -22158981.738 7
  20806745.167    20806749.752    74518993.225 9-126399527.551 8
 90  3  1  8 31 44.0800000  0  4G 3G12G19G13
  20874087.835    20874089.619    23951601.310 9 -50014589.401 9
  21063969.032    21063974.896    52452907.440 9 -73562653.422 8
  21794363.190    21794367.049    13302979.081 8 -22161786.927 8
  20809475.161    20809478.623    74533337.005 8-126388350.586 8
 90  3  1  8 31 59.0800000  0  4G 3G12G19G13
  20870700.545    20870704.176    23933806.046 9 -50028455.862 9
  21071141.515    21071145.663    52490596.611 9 -73533285.253 7
  21793703.414    21793706.766    13299512.624 9 -22164488.072 8
  20812207.755    20812211.671    74547696.715 9-126377161.233 8
 90  3  1  8 32 14.0800000  0  4G 3G12G19G13
  20867321.026    20867323.765    23916042.517 9 -50042297.570 7
  21078332.027    21078335.931    52528381.255 9 -73503842.696 9
  21793069.403    21793072.175    13296179.968 9 -22167084.961 8
  20814943.358    20814946.991    74562072.401 9-126365959.415 8
 90  3  1  8 32 29.0800000  0  4G 3G12G19G13
  20863946.775    20863949.493    23898310.495 9 -50056114.704 8
  21085539.538    21085544.802    52566261.108 9 -73474325.950 8
  21792460.482    21792463.591    13292981.000 9 -22169577.667 8
  20817681.997    20817686.014    74576464.043 9-126354745.150 8
 90  3  1  8 32 44.0800000  0  4G 3G12G19G13
  20860578.080    20860580.976    23880609.984 9 -50069907.270 7
  21092765.881    21092770.529    52604235.658 9 -73444735.416 9
  21791876.603    21791880.764    13289915.633 8 -22171966.261 7
  20820423.810    20820427.966    74590871.710 9-126343518.412 8
 90  3  1  8 32 59.0800000  0  4G 3G12G19G13
  20857215.931    20857217.300    23862940.728 9 -50083675.487 8
  21100011.140    21100014.758    52642304.289 9 -73415071.557 8
  21791319.468    21791322.197    13286983.791 9 -22174250.813 9
  20823168.385    20823170.870    74605295.074 9-126332279.425 8
 90  3  1  8 33 14.0800000  0  4G 3G12G19G13
  20853859.063    20853861.716    23845302.761 9 -50097419.342 8
  21107272.340    21107277.389    52680466.718 9 -73385334.628 9
  21790786.808    21790790.110    13284185.216 8 -22176431.513 8
  20825915.131    20825920.199    74619734.274 9-126321028.129 8
 90  3  1  8 33 29.0800000  0  4G 3G12G19G13
  20850509.553    20850511.466    23827696.203 9 -50111138.715 9
  21114551.884    21114557.376    52718722.734 9 -73355524.770 8
  21790280.957    21790283.222    13281519.970 9 -22178508.332 8
  20828666.013    20828669.997    74634189.521 9-126309764.313 8
 90  3  1  8 33 44.0800000  0  4G 3G12G19G13
  20847164.192    20847167.455    23810120.852 9 -50124833.781 9
  21121850.202    21121854.807    52757071.845 9 -73325642.372 8
  21789797.936    21789801.782    13278987.901 9 -22180481.376 8
  20831419.857    20831423.586    74648660.570 9-126298488.179 9
 90  3  1  8 33 59.0800000  0  4G 3G12G19G13
  20843826.087    20843828.683    23792576.703 9 -50138504.525 8
  21129165.806    21129170.353    52795513.729 9 -73295687.673 7
  21789341.344    21789345.533    13276589.008 9 -22182350.648 8
  20834176.060    20834180.942    74663147.328 9-126287199.816 8
 90  3  1  8 34 14.0800000  0  4G 3G12G19G13
  20840493.480    20840496.051    23775063.542 9 -50152151.150 8
  21136498.007    21136503.843    52834047.937 9 -73265661.037 9
  21788910.330    21788913.224    13274323.198 9 -22184116.209 8
  20836936.747    20836940.412    74677649.817 9-126275899.204 8
 90  3  1  8 34 29.0800000  0  4G 3G12G19G13
  20837166.142    20837169.757    23757581.586 9 -50165773.448 8
  21143848.095    21143852.786    52872674.176 9 -73235562.696 8
  21788504.557    21788506.707    13272190.298 9 -22185778.229 8
  20839699.198    20839704.001    74692168.106 9-126264586.281 8
 90  3  1  8 34 44.0800000  0  4G 3G12G19G13
  20833845.576    20833848.719    23740130.565 9 -50179371.638 8
  21151216.042    21151221.291    52911391.794 9 -73205393.146 8
  21788123.704    21788127.042    13270190.203 9 -22187336.758 8
  20842465.254    20842468.258    74706701.843 9-126253261.297 9
 90  3  1  8 34 59.0800000  0  4G 3G12G19G13
  20830531.145    20830535.179    23722710.442 8 -50192945.743 8
  21158600.558    21158606.122    52950200.431 9 -73175152.648 9
  21787768.758    21787772.511    13268322.846 9 -22188791.858 8
  20845233.242    20845236.947    74721251.113 9-126241924.224 8
 90  3  1  8 35 14.0800000  0  4G 3G12G19G13
  20827222.112    20827224.107    23705321.415 8 -50206495.607 8
  21166003.361    21166008.625    52989099.981 9 -73144841.340 8
  21787439.489    21787441.653    13266588.131 9 -22190143.588 8
  20848005.823    20848009.363    74735816.031 9-126230574.952 8
 90  3  1  8 35 29.0800000  0  4G 3G12G19G13
  20823919.060    20823920.855    23687963.264 9 -50220021.419 9
  21173422.678    21173428.671    53028089.874 9 -73114459.621 8
  21787133.566    21787136.667    13264985.983 9 -22191392.048 8
  20850780.229    20850784.306    74750396.592 9-126219213.491 8
 90  3  1  8 35 44.0800000  0  4G 3G12G19G13
  20820621.593    20820623.910    23670635.957 9 -50233523.200 8
  21180860.024    21180864.543    53067169.642 8 -73084007.884 8
  21786853.764    21786857.030    13263516.451 8 -22192537.138 8
  20853557.697    20853562.661    74764992.973 8-126207839.690 9
 90  3  1  8 35 59.0800000  0  4G 3G12G19G13
  20817330.582    20817332.921    23653339.577 9 -50247000.877 8
  21188312.938    21188318.946    53106339.055 9 -73053486.287 7
  21786599.096    21786602.777    13262179.357 8 -22193579.046 8
  20856338.396    20856341.800    74779604.979 8-126196453.721 8
 90  3  1  8 36 14.0800000  0  4G 3G12G19G13
  20814044.158    20814047.473    23636073.729 8 -50260454.783 8
  21195783.910    21195789.103    53145597.548 9 -73022895.266 9
  21786370.214    21786373.544    13260974.269 9 -22194518.100 7
  20859121.551    20859125.424    74794232.210 9-126185055.886 7
 90  3  1  8 36 29.0800000  0  4G 3G12G19G13
  20810765.092    20810766.851    23618838.430 9 -50273884.881 8
  21203271.567    21203276.416    53184944.752 9 -72992235.119 8
  21786165.858    21786170.448    13259901.298 9 -22195354.194 8
  20861908.227    20861911.599    74808874.817 9-126173646.060 9
 90  3  1  8 36 44.0800000  0  4G 3G12G19G13
  20807490.151    20807492.983    23601633.856 9 -50287291.011 8
  21210775.079    21210781.258    53224380.385 9 -72961506.087 8
  21785986.914    21785990.273    13258960.627 9 -22196087.192 8
  20864697.797    20864700.586    74823532.987 9-126162224.117 8
 90  3  1  8 36 59.0800000  0  4G 3G12G19G13
  20804222.561    20804224.277    23584459.903 9 -50300673.302 9
  21218296.305    21218302.213    53263903.892 9 -72930708.583 8
  21785832.282    21785836.221    13258151.833 9 -22196717.426 8
  20867489.813    20867493.912    74838206.501 9-126150790.213 8
 90  3  1  8 37 14.0800000  0  4G 3G12G19G13
  20800960.945    20800962.583    23567316.509 9 -50314031.793 8
  21225833.873    21225839.652    53303515.028 9 -72899842.786 8
  21785705.646    21785706.973    13257475.048 9 -22197244.794 8
  20870285.365    20870289.012    74852895.389 9-126139344.338 9
 90  3  1  8 37 29.0800000  0  4G 3G12G19G13
  20797704.517    20797705.668    23550203.331 9 -50327366.725 8
  21233388.354    21233394.333    53343213.126 9 -72868909.245 9
  21785600.595    21785604.155    13256929.837 9 -22197669.653 8
  20873083.581    20873086.731    74867599.480 9-126127886.619 8
 90  3  1  8 37 44.0800000  0  4G 3G12G19G13
  20794453.165    20794455.328    23533120.734 8 -50340677.831 7
  21240960.292    21240965.040    53382998.033 9 -72837908.032 9
  21785522.152    21785524.524    13256516.268 9 -22197991.914 8
  20875884.172    20875887.469    74882318.853 9-126116416.992 9
 90  3  1  8 37 59.0800000  0  4G 3G12G19G13
  20791208.670    20791209.648    23516068.555 9 -50353965.242 7
  21248546.453    21248551.488    53422869.131 9 -72806839.681 8
  21785467.356    21785471.681    13256234.237 9 -22198211.679 9
  20878688.610    20878691.405    74897053.402 9-126104935.526 9
 90  3  1  8 38 14.0800000  0  4G 3G12G19G13
  20787969.587    20787972.191    23499046.570 9 -50367229.128 8
  21256150.186    21256155.393    53462825.973 8 -72775704.501 9
  21785439.803    21785443.899    13256083.320 9 -22198329.310 7
  20881495.268    20881499.413    74911803.286 9-126093442.120 8
 90  3  1  8 38 29.0800000  0  4G 3G12G19G13
  20784735.824    20784738.281    23482054.130 9 -50380469.989 8
  21263769.860    21263775.095    53502867.631 9 -72744503.210 9
  21785435.803    21785439.392    13256062.970 9 -22198345.163 8
  20884305.540    20884308.011    74926567.824 9-126081937.301 8
 90  3  1  8 38 44.0800000  0  4G 3G12G19G13
  20781507.127    20781510.646    23465092.092 9 -50393687.165 9
  21271406.218    21271411.610    53542994.662 9 -72713235.414 8
  21785456.767    21785460.026    13256174.116 8 -22198258.559 8
  20887117.539    20887120.414    74941347.954 9-126070420.323 8
 90  3  1  8 38 59.0800000  0  4G 3G12G19G13
  20778285.358    20778288.216    23448160.368 9 -50406880.708 8
  21279058.946    21279063.680    53583206.274 9 -72681901.710 7
  21785503.093    21785506.509    13256416.356 8 -22198069.809 9
  20889933.088    20889936.796    74956143.382 9-126058891.425 8
 90  3  1  8 39 14.0800000  0  4G 3G12G19G13
  20775069.775    20775072.622    23431258.813 8 -50420050.734 8
  21286725.954    21286731.504    53623502.173 8 -72650502.323 8
  21785572.715    21785577.870    13256789.594 9 -22197778.993 8
  20892751.734    20892754.966    74970954.190 9-126047350.548 9
 90  3  1  8 39 29.0800000  0  4G 3G12G19G13
  20771858.642    20771861.024    23414387.285 9 -50433197.347 8
  21294410.992    21294415.440    53663881.699 9 -72619037.788 8
  21785669.638    21785673.462    13257293.487 8 -22197386.355 8
  20895571.882    20895576.639    74985780.043 9-126035797.949 8
 90  3  1  8 39 44.0800000  0  4G 3G12G19G13
  20768653.770    20768657.150    23397545.893 9 -50446320.516 8
  21302110.167    21302114.644    53704344.753 9 -72587508.144 9
  21785792.082    21785792.923    13257928.067 9 -22196891.907 9
  20898396.990    20898400.064    75000620.960 9-126024233.586 9
 90  3  1  8 39 59.0800000  0  4G 3G12G19G13
  20765455.583    20765458.376    23380734.440 8 -50459420.328 8
  21309826.142    21309830.776    53744890.766 9 -72555913.870 8
  21785936.870    21785940.036    13258693.231 9 -22196295.693 8
  20901223.047    20901226.612    75015477.093 9-126012657.371 9
 90  3  1  8 40 14.0800000  0  4G 3G12G19G13
  20762262.519    20762264.193    23363952.852 9 -50472496.879 8
  21317557.084    21317562.419    53785519.160 9 -72524255.398 7
  21786105.669    21786109.722    13259588.574 8 -22195598.033 8
  20904054.075    20904057.733    75030348.119 9-126001069.563 7
 90  3  1  8 40 29.0800000  0  4G 3G12G19G13
  20759073.419    20759076.602    23347201.192 9 -50485550.118 7
  21325304.252    21325308.929    53826229.575 9 -72492533.033 8
  21786301.862    21786305.042    13260614.272 8 -22194798.792 9
  20906886.497    20906890.445    75045234.082 9-125989470.132 8
 90  3  1  8 40 44.0800000  0  4G 3G12G19G13
  20755891.802    20755893.923    23330479.315 9 -50498580.143 8
  21333067.104    21333071.022    53867021.613 9 -72460747.038 8
  21786522.253    21786525.182    13261770.222 9 -22193898.063 9
  20909721.785    20909725.468    75060134.993 9-125977859.056 8
 90  3  1  8 40 59.0800000  0  4G 3G12G19G13
  20752715.941    20752718.377    23313787.308 8 -50511586.892 8
  21340844.665    21340849.857    53907895.125 9 -72428897.570 8
  21786767.054    21786770.327    13263056.375 9 -22192895.879 8
  20912560.428    20912563.585    75075051.063 9-125966236.180 9
 90  3  1  8 41 14.0800000  0  4G 3G12G19G13
  20749544.234    20749546.443    23297125.292 9 -50524570.265 8
  21348637.737    21348643.573    53948849.558 9 -72396985.051 9
  21787035.208    21787039.376    13264472.452 9 -22191792.445 8
  20915402.294    20915405.828    75089982.346 9-125954601.426 8
 90  3  1  8 41 29.0800000  0  4G 3G12G19G13
  20746379.556    20746380.575    23280492.840 8 -50537530.624 9
  21356447.065    21356451.942    53989884.475 9 -72365009.808 8
  21787330.686    21787334.153    13266018.134 9 -22190588.026 8
  20918246.393    20918249.257    75104928.703 9-125942954.924 7
 90  3  1  8 41 44.0800000  0  4G 3G12G19G13
  20743220.422    20743222.986    23263890.139 8 -50550467.785 7
  21364271.045    21364275.350    54030999.398 9 -72332972.232 8
  21787649.009    21787652.526    13267693.304 9 -22189282.715 8
  20921093.336    20921096.933    75119889.991 9-125931296.788 8
 90  3  1  8 41 59.0800000  0  4G 3G12G19G13
  20740066.755    20740068.400    23247317.103 9 -50563381.846 8
  21372110.279    21372114.612    54072194.039 9 -72300872.528 8
  21787992.909    21787996.103    13269498.125 9 -22187876.359 9
  20923942.504    20923946.359    75134866.214 9-125919627.000 8
 90  3  1  8 42 14.0800000  0  4G 3G12G19G13
  20736919.001    20736920.342    23230773.662 9 -50576272.834 8
  21379964.623    21379969.930    54113468.069 9 -72268710.956 9
  21788360.033    21788362.462    13271432.177 9 -22186369.311 8
  20926796.364    20926800.012    75149857.511 9-125907945.487 8
 90  3  1  8 42 29.0800000  0  4G 3G12G19G13
  20733776.091    20733779.199    23214259.740 8 -50589140.828 8
  21387833.906    21387837.810    54154820.843 9 -72236488.037 8
  21788752.620    21788756.810    13273495.262 9 -22184761.745 8
  20929651.925    20929655.115    75164863.628 9-125896252.419 9
 90  3  1  8 42 44.0800000  0  4G 3G12G19G13
  20730638.296    20730641.816    23197775.272 9 -50601985.857 9
  21395717.642    21395722.348    54196251.967 9 -72204204.067 8
  21789169.790    21789174.123    13275687.606 9 -22183053.446 8
  20932509.334    20932512.864    75179884.377 9-125884547.966 8
 90  3  1  8 42 59.0800000  0  4G 3G12G19G13
  20727507.101    20727509.694    23181320.254 9 -50614807.944 8
  21403616.259    21403621.293    54237761.121 9 -72171859.297 8
  21789612.002    21789615.311    13278008.785 8 -22181244.743 8
  20935370.612    20935374.030    75194920.124 8-125872831.820 8
 90  3  1  8 43 14.0800000  0  4G 3G12G19G13
  20724382.346    20724383.855    23164895.022 9 -50627606.822 8
  21411530.702    21411534.935    54279347.858 9 -72139454.080 8
  21790077.759    21790082.148    13280458.933 9 -22179335.551 9
  20938235.119    20938238.244    75209971.073 9-125861103.822 8
 90  3  1  8 43 29.0800000  0  4G 3G12G19G13
  20721261.597    20721263.499    23148499.216 9 -50640382.785 8
  21419459.454    21419464.159    54321011.941 9 -72106988.573 8
  21790569.409    21790572.346    13283037.828 9 -22177326.037 8
  20941101.718    20941104.633    75225036.952 9-125849364.199 9
 90  3  1  8 43 44.0800000  0  4G 3G12G19G13
  20718147.438    20718150.142    23132132.717 9 -50653135.897 8
  21427401.399    21427407.034    54362752.826 9 -72074463.229 8
  21791084.812    21791087.613    13285745.143 8 -22175216.450 8
  20943971.710    20943974.638    75240117.553 9-125837613.103 9
 90  3  1  8 43 59.0800000  0  4G 3G12G19G13
  20715039.292    20715041.527    23115795.411 9 -50665866.279 8
  21435358.111    21435363.389    54404569.967 9 -72041878.464 9
  21791625.228    21791627.714    13288580.741 8 -22173006.905 8
  20946844.505    20946848.028    75255212.860 9-125825850.559 8
 90  3  1  8 44 14.0800000  0  4G 3G12G19G13
  20711935.646    20711937.487    23099487.467 9 -50678573.771 8
  21443331.394    21443335.870    54446463.069 9 -72009234.518 9
  21792188.029    21792191.031    13291544.643 9 -22170697.377 8
  20949719.973    20949723.402    75270323.153 9-125814076.329 8
 90  3  1  8 44 29.0800000  0  4G 3G12G19G13
  20708837.684    20708840.159    23083208.781 9 -50691258.452 8
  21451317.755    21451323.447    54488431.758 9 -71976531.665 8
  21792775.880    21792779.611    13294636.580 8 -22168288.086 9
  20952596.775    20952601.514    75285448.327 8-125802290.484 8
 90  3  1  8 44 44.0800000  0  4G 3G12G19G13
  20705745.203    20705747.109    23066959.241 9 -50703920.434 8
  21459318.282    21459322.987    54530475.382 9 -71943770.433 9
  21793388.542    21793392.209    13297856.398 8 -22165779.128 8
  20955477.556    20955481.976    75300588.213 9-125790493.182 8
 90  3  1  8 44 59.0800000  0  4G 3G12G19G13
  20702659.473    20702661.665    23050738.501 9 -50716559.965 8
  21467332.917    21467338.038    54572593.382 9 -71910951.235 9
  21794026.861    21794029.333    13301203.841 9 -22163170.734 8
  20958362.493    20958366.179    75315742.922 9-125778684.332 8
 90  3  1  8 45 14.0800000  0  4G 3G12G19G13
  20699577.658    20699580.362    23034546.869 9 -50729176.823 8
  21475361.691    21475366.768    54614785.468 9 -71878074.312 8
  21794687.303    21794690.311    13304678.974 8 -22160462.834 8
  20961249.905    20961253.943    75330912.246 9-125766864.094 9
 90  3  1  8 45 29.0800000  0  4G 3G12G19G13
  20696502.463    20696504.115    23018384.503 9 -50741770.878 8
  21483405.346    21483410.180    54657051.317 9 -71845139.907 8
  21795372.284    21795374.877    13308281.688 9 -22157655.525 9
  20964138.878    20964142.436    75346096.613 9-125755032.145 9
 90  3  1  8 45 44.0800000  0  4G 3G12G19G13
  20693431.896    20693433.756    23002251.134 8 -50754342.323 8
  21491461.507    21491466.441    54699390.679 8 -71812148.219 8
  21796081.991    21796086.924    13312011.417 9 -22154749.238 7
  20967031.534    20967034.231    75361295.852 9-125743188.598 8
 90  3  1  8 45 59.0800000  0  4G 3G12G19G13
  20690366.739    20690369.517    22986146.620 9 -50766891.289 7
  21499532.406    21499537.584    54741802.799 9 -71779099.834 8
  21796817.534    21796820.235    13315868.119 9 -22151744.026 8
  20969926.274    20969930.418    75376509.699 9-125731333.677 9
 90  3  1  8 46 14.0800000  0  4G 3G12G19G13
  20687309.208    20687311.719    22970071.060 9 -50779417.693 9
  21507617.615    21507622.564    54784287.396 8 -71745994.983 8
  21797574.884    21797577.928    13319851.732 9 -22148639.919 8
  20972824.292    20972827.371    75391738.021 9-125719467.454 9
 90  3  1  8 46 29.0800000  0  4G 3G12G19G13
  20684254.313    20684257.125    22954024.115 8 -50791921.819 7
  21515715.273    21515720.007    54826844.021 9 -71712834.006 9
  21798355.894    21798360.283    13323961.904 8 -22145437.190 9
  20975724.777    20975728.578    75406980.943 9-125707589.876 8
 90  3  1  8 46 44.0800000  0  4G 3G12G19G13
  20681206.624    20681208.186    22938006.092 9 -50804403.396 8
  21523827.555    21523832.375    54869472.192 8 -71679617.259 8
  21799162.474    21799166.592    13328198.584 9 -22142135.893 9
  20978628.326    20978632.346    75422238.639 9-125695700.784 8
 90  3  1  8 46 59.0800000  0  4G 3G12G19G13
  20678163.198    20678165.555    22922016.974 8 -50816862.471 8
  21531952.228    21531957.435    54912171.495 9 -71646345.101 8
  21799993.667    21799996.096    13332561.796 9 -22138735.999 9
  20981534.359    20981537.191    75437511.246 9-125683800.067 8
 90  3  1  8 47 14.0800000  0  4G 3G12G19G13
  20675126.770    20675128.872    22906056.704 9 -50829299.041 8
  21540091.269    21540096.446    54954941.721 8 -71613017.677 8
  21800847.282    21800851.514    13337051.067 8 -22135237.873 8
  20984443.951    20984447.319    75452798.708 9-125671887.779 8
 90  3  1  8 47 29.0800000  0  4G 3G12G19G13
  20672094.823    20672097.634    22890125.330 9 -50841713.102 8
  21548243.272    21548249.051    54997782.469 9 -71579635.294 8
  21801725.609    21801729.555    13341666.625 8 -22131641.338 9
  20987355.678    20987358.263    75468101.019 8-125659963.927 8
 90  3  1  8 47 44.0800000  0  4G 3G12G19G13
  20669068.451    20669071.981    22874222.644 9 -50854104.814 9
  21556408.813    21556414.277    55040693.071 9 -71546198.479 8
  21802628.541    21802631.234    13346408.167 9 -22127946.639 9
  20990269.977    20990273.006    75483417.762 8-125648028.825 8
 90  3  1  8 47 59.0800000  0  4G 3G12G19G13
  20666048.239    20666050.770    22858348.517 9 -50866474.265 8
  21564589.064    21564593.268    55083673.073 9 -71512707.588 7
  21803554.074    21803557.082    13351275.439 9 -22124153.971 9
  20993187.035    20993191.291    75498749.115 9-125636082.344 9
 90  3  1  8 48 14.0800000  0  4G 3G12G19G13
  20663032.787    20663036.020    22842503.205 9 -50878821.281 8
  21572780.303    21572784.751    55126722.402 8 -71479162.684 8
  21804504.663    21804506.669    13356268.286 9 -22120263.438 8
  20996107.520    20996111.185    75514095.133 9-125624124.444 7
 90  3  1  8 48 29.0800000  0  4G 3G12G19G13
  20660022.873    20660025.617    22826686.525 9 -50891145.956 8
  21580985.910    21580990.473    55169840.418 9 -71445564.227 8
  21805477.609    21805480.810    13361386.359 9 -22116275.336 9
  20999031.228    20999034.593    75529456.003 9-125612154.965 8
 90  3  1  8 48 44.0800000  0  4G 3G12G19G13
  20657018.458    20657021.595    22810898.484 8 -50903448.327 8
  21589203.393    21589207.984    55213026.710 9 -71411912.588 8
  21806475.968    21806479.328    13366629.416 9 -22112189.828 9
  21001955.801    21001960.433    75544831.665 9-125600173.957 8
 90  3  1  8 48 59.0800000  0  4G 3G12G19G13
  20654020.236    20654022.388    22795138.856 9 -50915728.550 9
  21597435.300    21597439.862    55256280.617 9 -71378208.273 8
  21807498.260    21807500.982    13371997.477 9 -22108006.919 8
  21004885.573    21004889.392    75560221.679 9-125588181.767 9
 90  3  1  8 49 14.0800000  0  4G 3G12G19G13
  20651026.520    20651028.083    22779407.777 9 -50927986.541 8
  21605678.425    21605683.416    55299602.001 9 -71344451.355 8
  21808542.946    21808545.668    13377490.381 9 -22103726.732 9
  21007816.975    21007819.525    75575626.231 9-125576178.229 8
 90  3  1  8 49 29.0800000  0  4G 3G12G19G13
  20648037.791    20648040.949    22763705.257 9 -50940222.281 8
  21613935.487    21613939.534    55342990.459 9 -71310642.197 8
  21809611.020    21809614.486    13383108.032 9 -22099349.349 8
  21010750.617    21010755.456    75591045.628 9-125564163.146 8
 90  3  1  8 49 44.0800000  0  4G 3G12G19G13
  20645055.362    20645058.251    22748031.303 9 -50952435.742 8
  21622203.996    21622208.745    55386445.491 8 -71276781.140 7
  21810704.235    21810707.315    13388850.270 9 -22094874.890 8
  21013688.162    21013691.491    75606479.658 9-125552136.631 8
 90  3  1  8 49 59.0800000  0  4G 3G12G19G13
  20642078.424    20642080.741    22732385.672 9 -50964627.148 9
  21630485.299    21630490.634    55429966.557 9 -71242868.630 8
  21811820.245    21811824.649    13394716.567 9 -22090303.767 8
  21016627.585    21016631.866    75621928.357 8-125540098.713 8
 90  3  1  8 50 14.0800000  0  4G 3G12G19G13
  20639106.709    20639109.159    22716768.460 9 -50976796.408 8
  21638779.450    21638784.084    55473553.325 9 -71208904.933 9
  21812959.980    21812964.147    13400706.753 9 -22085636.106 8
  21019570.328    21019573.899    75637391.714 9-125528049.350 7
 90  3  1  8 50 29.0800000  0  4G 3G12G19G13
  20636140.281    20636142.595    22701179.370 9 -50988943.767 8
  21647087.281    21647092.029    55517205.219 9 -71174890.510 9
  21814124.197    21814128.544    13406820.831 9 -22080871.926 9
  21022515.928    21022519.894    75652869.631 9-125515988.649 9
 90  3  1  8 50 44.0800000  0  4G 3G12G19G13
  20633178.866    20633180.367    22685618.639 9 -51001069.039 8
  21655405.644    21655411.309    55560921.903 9 -71140825.599 9
  21815309.671    21815315.405    13413058.675 8 -22076011.292 9
  21025464.534    21025467.634    75668362.215 8-125503916.515 8
 90  3  1  8 50 59.0800000  0  4G 3G12G19G13
  20630222.686    20630225.361    22670086.225 9 -51013172.206 7
  21663736.999    21663742.020    55604702.849 8 -71106710.599 8
  21816522.504    21816525.720    13419419.964 9 -22071054.472 9
  21028414.295    21028417.993    75683869.382 9-125491833.023 8
 90  3  1  8 51 14.0800000  0  4G 3G12G19G13
  20627272.331    20627275.249    22654582.016 9 -51025253.425 8
  21672080.346    21672085.825    55648547.590 8 -71072545.883 8
  21817756.429    21817759.516    13425904.502 9 -22066001.594 8
  21031368.843    21031371.832    75699391.152 8-125479738.140 9
 90  3  1  8 51 29.0800000  0  4G 3G12G19G13
  20624327.667    20624330.844    22639106.154 9 -51037312.529 8
  21680436.485    21680441.448    55692455.873 9 -71038331.664 8
  21819014.135    21819016.729    13432512.382 9 -22060852.617 8
  21034325.402    21034328.426    75714927.541 9-125467631.865 9
 90  3  1  8 51 44.0800000  0  4G 3G12G19G13
  20621387.859    20621390.569    22623658.534 9 -51049349.641 8
  21688802.812    21688809.092    55736427.146 9 -71004068.359 8
  21820295.330    21820298.596    13439243.364 9 -22055607.689 9
  21037283.927    21037288.419    75730478.719 9-125455514.075 8
 90  3  1  8 51 59.0800000  0  4G 3G12G19G13
  20618453.508    20618455.754    22608238.982 9 -51061364.877 8
  21697183.277    21697187.882    55780460.986 9 -70969756.301 9
  21821599.599    21821601.907    13446097.047 9 -22050267.169 9
  21040246.288    21040249.131    75746044.569 9-125443384.838 8
 90  3  1  8 52 14.0800000  0  4G 3G12G19G13
  20615525.669    20615527.613    22592847.689 9 -51073358.102 7
  21705573.901    21705579.279    55824557.102 9 -70935395.719 9
  21822926.755    21822929.728    13453073.316 8 -22044831.118 8
  21043210.988    21043214.521    75761625.084 9-125431244.193 7
 90  3  1  8 52 29.0800000  0  4G 3G12G19G13
  20612601.592    20612604.944    22577484.653 9 -51085329.312 8
  21713976.774    21713981.909    55868715.142 9 -70900986.866 9
  21824276.999    21824280.316    13460171.859 8 -22039299.800 8
  21046178.288    21046182.547    75777220.386 9-125419092.022 8
 90  3  1  8 52 44.0800000  0  4G 3G12G19G13
  20609684.145    20609686.755    22562149.712 9 -51097278.607 7
  21722391.123    21722396.587    55912934.543 9 -70866530.218 8
  21825649.817    21825653.190    13467392.391 9 -22033673.450 8
  21049148.319    21049153.104    75792830.323 8-125406928.439 8
 90  3  1  8 52 59.0800000  0  4G 3G12G19G13
  20606770.307    20606773.125    22546842.808 9 -51109206.068 8
  21730817.635    21730823.585    55957214.820 9 -70832026.131 8
  21827047.796    21827050.855    13474735.092 9 -22027951.862 8
  21052123.922    21052126.479    75808454.953 8-125394753.409 7
 90  3  1  8 53 14.0800000  0  4G 3G12G19G13
  20603862.486    20603865.948    22531563.907 9 -51121111.708 7
  21739254.878    21739261.459    56001555.634 8 -70797474.867 8
  21828467.934    21828471.987    13482199.741 9 -22022135.262 9
  21055098.596    21055102.343    75824094.192 8-125382566.997 8
 90  3  1  8 53 29.0800000  0  4G 3G12G19G13
  20600962.120    20600963.768    22516313.310 9 -51132995.293 9
  21747704.742    21747710.636    56045956.526 9 -70762876.792 8
  21829912.368    21829915.019    13489785.804 9 -22016224.035 9
  21058078.171    21058081.178    75839748.217 9-125370369.061 8
 90  3  1  8 53 44.0800000  0  4G 3G12G19G13
  20598065.088    20598066.976    22501090.617 9 -51144857.140 7
  21756165.424    21756170.731    56090416.992 9 -70728232.304 9
  21831378.624    21831382.871    13497493.176 9 -22010218.302 8
  21061059.516    21061064.147    75855416.844 8-125358159.754 8
 90  3  1  8 53 59.0800000  0  4G 3G12G19G13
  20595173.558    20595176.942    22485895.916 9 -51156697.184 8
  21764637.926    21764642.775    56134936.503 9 -70693541.800 9
  21832868.812    21832872.693    13505321.639 9 -22004118.224 9
  21064044.134    21064046.891    75871100.090 9-125345939.051 8
 90  3  1  8 54 14.0800000  0  4G 3G12G19G13
  20592285.974    20592290.019    22470729.179 9 -51168515.443 8
  21773120.043    21773126.094    56179514.701 9 -70658805.560 9
  21834380.521    21834384.331    13513271.381 9 -21997923.641 9
  21067031.482    21067034.776    75886797.882 9-125333707.009 8
 90  3  1  8 54 29.0800000  0  4G 3G12G19G13
  20589406.378    20589408.981    22455590.444 9 -51180311.862 8
  21781614.495    21781619.558    56224151.193 9 -70624023.898 9
  21835916.241    21835920.588    13521341.917 9 -21991634.904 8
  21070021.596    21070024.746    75902510.510 9-125321463.416 8
 90  3  1  8 54 44.0800000  0  4G 3G12G19G13
  20586530.638    20586532.937    22440479.617 9 -51192086.533 8
  21790119.392    21790124.684    56268845.529 9 -70589197.173 8
  21837475.199    21837480.197    13529532.773 8 -21985252.437 9
  21073013.701    21073017.445    75918237.881 9-125309208.335 7
 90  3  1  8 54 59.0800000  0  4G 3G12G19G13
  20583659.946    20583662.449    22425396.712 9 -51203839.463 8
  21798635.622    21798640.857    56313597.282 9 -70554325.702 8
  21839057.073    21839060.611    13537843.963 9 -21978776.202 8
  21076009.502    21076013.336    75933979.931 9-125296941.822 9
 90  3  1  8 55 14.0800000  0  4G 3G12G19G13
  20580795.450    20580797.753    22410341.833 9 -51215570.544 8
  21807162.699    21807167.834    56358406.249 9 -70519409.647 9
  21840662.665    21840664.765    13546275.486 9 -21972206.188 8
  21079007.690    21079012.618    75949736.904 8-125284663.645 8
 90  3  1  8 55 29.0800000  0  4G 3G12G19G13
  20577936.055    20577937.853    22395314.984 9 -51227279.784 7
  21815700.536    21815705.585    56403271.831 9 -70484449.468 9
  21842289.463    21842293.308    13554827.014 9 -21965542.677 9
  21082008.355    21082012.640    75965508.826 9-125272373.841 9
 90  3  1  8 55 44.0800000  0  4G 3G12G19G13
  20575080.677    20575084.110    22380316.068 9 -51238967.265 8
  21824248.361    21824254.669    56448193.630 9 -70449445.486 9
  21843938.626    21843942.393    13563498.459 9 -21958785.726 8
  21085012.982    21085017.191    75981295.679 9-125260072.403 8
 90  3  1  8 55 59.0800000  0  4G 3G12G19G13
  20572233.212    20572234.806    22365345.063 8 -51250632.998 8
  21832806.804    21832813.155    56493171.177 9 -70414398.073 9
  21845612.301    21845616.346    13572289.238 9 -21951935.766 8
  21088020.577    21088024.014    75997097.328 9-125247759.432 8
 90  3  1  8 56 14.0800000  0  4G 3G12G19G13
  20569389.689    20569392.160    22350401.886 9 -51262277.052 8
  21841376.779    21841381.871    56538204.080 9 -70379307.518 9
  21847308.062    21847311.707    13581199.338 9 -21944992.851 9
  21091029.940    21091033.384    76012913.755 8-125235434.949 8
 90  3  1  8 56 29.0800000  0  4G 3G12G19G13
  20566551.568    20566554.129    22335486.542 9 -51273899.418 8
  21849956.628    21849962.335    56583291.948 8 -70344174.136 8
  21849025.409    21849028.653    13590228.321 9 -21937957.292 9
  21094042.419    21094046.284    76028745.054 9-125223098.874 8
 90  3  1  8 56 44.0800000  0  4G 3G12G19G13
  20563718.098    20563719.664    22320599.068 9 -51285500.069 8
  21858547.782    21858552.773    56628434.397 9 -70308998.240 8
  21850767.095    21850770.125    13599376.479 9 -21930828.867 9
  21097058.256    21097062.491    76044591.248 9-125210751.180 8
 90  3  1  8 56 59.0800000  0  4G 3G12G19G13
  20560890.727    20560892.536    22305739.662 9 -51297078.846 7
  21867148.521    21867152.826    56673631.004 9 -70273780.104 9
  21852530.603    21852534.312    13608643.558 9 -21923607.782 9
  21100076.473    21100079.766    76060452.596 9-125198391.693 9
 90  3  1  8 57 14.0800000  0  4G 3G12G19G13
  20558067.230    20558070.599    22290908.006 9 -51308635.997 8
  21875757.676    21875763.826    56718881.115 9 -70238520.308 7
  21854316.498    21854320.594    13618029.042 9 -21916294.427 8
  21103097.823    21103101.700    76076328.970 8-125186020.497 8
 90  3  1  8 57 29.0800000  0  4G 3G12G19G13
  20555250.984    20555254.042    22276104.110 9 -51320171.522 7
  21884380.023    21884385.158    56764184.372 9 -70203219.081 9
  21856124.778    21856128.732    13627532.611 9 -21908889.056 8
  21106121.555    21106125.085    76092220.039 8-125173637.848 8
 90  3  1  8 57 44.0800000  0  4G 3G12G19G13
  20552439.224    20552442.507    22261327.886 9 -51331685.461 8
  21893009.868    21893015.203    56809540.382 9 -70167876.767 8
  21857955.690    21857958.784    13637154.230 9 -21901391.716 8
  21109148.103    21109151.093    76108125.824 9-125161243.739 8
 90  3  1  8 57 59.0800000  0  4G 3G12G19G13
  20549633.006    20549635.416    22246579.425 9 -51343177.777 7
  21901651.562    21901657.526    56854948.670 9 -70132493.707 7
  21859809.096    21859812.398    13646893.622 9 -21893802.593 9
  21112178.093    21112181.898    76124046.574 9-125148837.966 8
 90  3  1  8 58 14.0800000  0  4G 3G12G19G13
  20546831.803    20546833.797    22231858.619 9 -51354648.555 8
  21910302.671    21910308.006    56900408.851 9 -70097070.202 9
  21861685.046    21861688.576    13656750.673 9 -21886121.784 9
  21115210.650    21115214.230    76139982.236 9-125136420.571 8
 90  3  1  8 58 29.0800000  0  4G 3G12G19G13
  20544036.302    20544038.501    22217165.719 9 -51366097.578 8
  21918963.080    21918968.644    56945920.459 9 -70061606.621 8
  21863583.532    21863586.125    13666724.928 8 -21878349.649 8
  21118246.152    21118250.104    76155932.903 9-125123991.484 9
 90  3  1  8 58 44.0800000  0  4G 3G12G19G13
  20541244.829    20541247.486    22202500.401 9 -51377525.126 8
  21927632.505    21927637.682    56991482.925 9 -70026103.405 9
  21865502.659    21865507.242    13676816.123 9 -21870486.376 8
  21121284.269    21121287.756    76171898.673 8-125111550.617 8
 90  3  1  8 58 59.0800000  0  4G 3G12G19G13
  20538459.670    20538460.924    22187862.906 8 -51388930.994 8
  21936311.860    21936318.239    57037096.002 9 -69990560.770 8
  21867446.055    21867449.636    13687024.364 9 -21862531.917 9
  21124324.257    21124328.377    76187879.581 9-125099097.981 8
 90  3  1  8 59 14.0800000  0  4G 3G12G19G13
  20535679.609    20535682.498    22173253.339 9 -51400315.090 8
  21945002.261    21945007.439    57082759.454 8 -69954978.881 8
  21869410.572    21869413.766    13697349.457 9 -21854486.400 9
  21127369.644    21127372.343    76203875.850 9-125086633.342 8
 90  3  1  8 59 29.0800000  0  4G 3G12G19G13
  20532904.530    20532906.919    22158671.482 9 -51411677.613 8
  21953701.364    21953705.954    57128472.746 8 -69919358.162 8
  21871397.753    21871401.363    13707791.046 9 -21846350.134 8
  21130415.112    21130420.194    76219887.007 9-125074157.124 9
 90  3  1  8 59 44.0800000  0  4G 3G12G19G13
  20530135.566    20530137.385    22144117.652 9 -51423018.288 8
  21962409.909    21962415.087    57174235.425 9 -69883698.945 9
  21873406.707    21873410.288    13718348.884 9 -21838123.278 9
  21133465.900    21133468.828    76235913.271 9-125061669.128 8
 90  3  1  8 59 59.0800000  0  4G 3G12G19G13
  20527370.758    20527373.067    22129591.571 9 -51434337.343 8
  21971127.270    21971133.076    57220047.086 9 -69848001.566 8
  21875437.525    21875440.841    13729022.808 8 -21829805.946 9
  21136518.576    21136521.927    76251954.706 9-125049169.317 8
 90  3  1  9  0 14.0800000  0  4G 3G12G19G13
  20524611.960    20524615.021    22115093.439 9 -51445634.604 8
  21979853.587    21979860.682    57265907.500 9 -69812266.202 8
  21877491.524    21877494.311    13739812.785 9 -21821398.204 9
  21139573.689    21139577.512    76268011.634 9-125036657.429 8
 90  3  1  9  0 29.0800000  0  4G 3G12G19G13
  20521858.371    20521861.786    22100623.130 9 -51456910.185 8
  21988590.666    21988596.344    57311816.181 9 -69776493.226 9
  21879566.836    21879569.609    13750718.574 9 -21812900.193 9
  21142632.397    21142636.438    76284083.976 9-125024133.525 8
 90  3  1  9  0 44.0800000  0  4G 3G12G19G13
  20519109.986    20519112.811    22086180.790 9 -51468163.982 8
  21997335.986    21997340.963    57357772.611 9 -69740683.046 9
  21881663.563    21881667.386    13761739.918 9 -21804312.146 7
  21145694.482    21145697.571    76300171.855 9-125011597.528 8
 90  3  1  9  0 59.0800000  0  4G 3G12G19G13
  20516366.789    20516370.830    22071766.031 9 -51479396.301 8
  22006090.035    22006094.339    57403776.315 9 -69704836.045 8
  21883782.911    21883786.149    13772876.262 9 -21795634.467 8
  21148758.040    21148762.285    76316275.126 9-124999049.533 8
 90  3  1  9  1 14.0800000  0  4G 3G12G19G13
  20513628.939    20513631.771    22057379.166 8 -51490606.862 7
  22014853.013    22014859.264    57449826.872 8 -69668952.508 9
  21885923.631    21885927.505    13784127.477 9 -21786867.282 8
  21151825.305    21151830.226    76332393.681 9-124986489.621 8
 90  3  1  9  1 29.0800000  0  4G 3G12G19G13
  20510896.703    20510898.755    22043019.850 9 -51501795.961 8
  22023624.548    22023630.642    57495923.735 9 -69633032.890 9
  21888086.930    21888090.740    13795493.511 9 -21778010.660 8
  21154896.065    21154899.795    76348527.478 9-124973917.843 9
 90  3  1  9  1 44.0800000  0  4G 3G12G19G13
  20508168.788    20508172.633    22028688.506 8 -51512963.279 7
  22032406.357    22032411.992    57542066.511 9 -69597077.514 9
  21890271.766    21890274.889    13806974.078 9 -21769064.773 8
  21157967.730    21157972.300    76364676.587 9-124961334.124 8
 90  3  1  9  1 59.0800000  0  4G 3G12G19G13
  20505448.013    20505451.350    22014384.899 9 -51524108.968 8
  22041194.805    22041201.227    57588254.806 9 -69561086.661 8
  21892477.248    21892481.101    13818568.660 9 -21760030.049 9
  21161044.170    21161048.569    76380840.995 9-124948738.487 9
 90  3  1  9  2 14.0800000  0  4G 3G12G19G13
  20502730.955    20502734.177    22000108.912 9 -51535233.136 9
  22049993.699    22049998.319    57634488.062 9 -69525060.761 8
  21894705.834    21894709.615    13830277.185 8 -21750906.510 8
  21164124.328    21164127.335    76397020.756 8-124936130.890 8
 90  3  1  9  2 29.0800000  0  4G 3G12G19G13
  20500020.096    20500022.943    21985860.500 8 -51546335.819 8
  22058799.347    22058806.013    57680765.949 9 -69489000.084 8
  21896956.126    21896958.398    13842099.372 9 -21741694.428 9
  21167205.487    21167208.966    76413216.067 9-124923511.164 8
 90  3  1  9  2 44.0800000  0  4G 3G12G19G13
  20497313.413    20497316.706    21971639.730 9 -51557416.942 8
  22067613.895    22067620.261    57727087.907 9 -69452905.064 9
  21899226.845    21899230.047    13854034.662 9 -21732394.218 9
  21170290.270    21170294.711    76429426.513 9-124910879.654 8
 90  3  1  9  2 59.0800000  0  4G 3G12G19G13
  20494613.243    20494615.750    21957446.811 9 -51568476.373 8
  22076437.773    22076443.681    57773453.546 9 -69416776.019 9
  21901519.486    21901523.017    13866082.993 9 -21723005.920 8
  21173378.032    21173381.730    76445652.503 9-124898236.027 8
 90  3  1  9  3 14.0800000  0  4G 3G12G19G13
  20491917.591    20491920.918    21943281.626 9 -51579514.212 9
  22085269.120    22085274.541    57819862.524 9 -69380613.186 9
  21903833.804    21903836.162    13878244.187 8 -21713529.691 9
  21176468.328    21176472.465    76461894.134 9-124885580.210 9
 90  3  1  9  3 29.0800000  0  4G 3G12G19G13
  20489227.675    20489229.541    21929144.162 9 -51590530.445 8
  22094108.681    22094113.916    57866314.372 9 -69344416.960 9
  21906169.479    21906174.177    13890518.230 8 -21703965.527 8
  21179561.718    21179565.859    76478151.320 8-124872912.280 9
 90  3  1  9  3 44.0800000  0  4G 3G12G19G13
  20486543.217    20486545.058    21915034.385 9 -51601525.079 8
  22102955.454    22102960.875    57912808.767 9 -69308187.589 9
  21908526.204    21908529.534    13902904.918 9 -21694313.578 9
  21182659.407    21182662.894    76494424.132 9-124860232.165 8
 90  3  1  9  3 59.0800000  0  4G 3G12G19G13
  20483863.162    20483864.421    21900952.394 9 -51612498.074 9
  22111811.556    22111818.022    57959345.142 9 -69271925.499 9
  21910904.821    21910909.481    13915403.961 8 -21684574.067 8
  21185757.623    21185762.498    76510712.635 9-124847539.821 8
 90  3  1  9  4 14.0800000  0  4G 3G12G19G13
  20481188.041    20481191.442    21886898.004 9 -51623449.552 8
  22120674.384    22120680.449    58005922.993 9 -69235631.089 9
  21913304.515    21913309.233    13928014.774 9 -21674747.439 8
  21188860.145    21188865.138    76527016.630 9-124834835.409 8
 90  3  1  9  4 29.0800000  0  4G 3G12G19G13
  20478518.135    20478522.599    21872871.354 8 -51634379.410 7
  22129546.569    22129552.048    58052541.990 9 -69199304.614 8
  21915726.511    21915729.426    13940737.221 9 -21664833.860 9
  21191966.897    21191970.691    76543336.423 9-124822118.702 8
 90  3  1  9  4 44.0800000  0  4G 3G12G19G13
  20475855.191    20475857.208    21858872.525 9 -51645287.590 8
  22138425.824    22138430.687    58099201.789 8 -69162946.348 9
  21918167.330    21918171.905    13953571.187 9 -21654833.370 8
  21195075.025    21195078.751    76559672.065 9-124809389.652 8
 90  3  1  9  4 59.0800000  0  4G 3G12G19G13
  20473197.073    20473198.871    21844901.383 9 -51656174.203 9
  22147311.718    22147318.040    58145902.068 9 -69126556.552 9
  21920631.616    21920634.718    13966516.503 8 -21644746.113 9
  21198186.101    21198189.981    76576023.566 9-124796648.221 8
 90  3  1  9  5 14.0800000  0  4G 3G12G19G13
  20470543.376    20470546.136    21830958.254 9 -51667039.001 8
  22156206.197    22156212.233    58192642.249 8 -69090135.652 8
  21923115.707    21923119.080    13979572.572 9 -21634572.570 9
  21201300.919    21201305.117    76592390.675 9-124783894.639 8
 90  3  1  9  5 29.0800000  0  4G 3G12G19G13
  20467894.569    20467898.202    21817042.755 9 -51677882.241 8
  22165108.175    22165114.183    58239421.916 9 -69053683.972 9
  21925620.874    21925625.507    13992739.465 9 -21624312.668 8
  21204418.501    21204423.047    76608773.578 9-124771128.732 9
 90  3  1  9  5 44.0800000  0  4G 3G12G19G13
  20465252.920    20465255.073    21803154.989 9 -51688703.894 8
  22174018.251    22174023.028    58286240.661 9 -69017201.858 8
  21928147.570    21928151.487    14006016.898 9 -21613966.633 8
  21207539.863    21207543.242    76625172.337 9-124758350.476 8
 90  3  1  9  5 59.0800000  0  4G 3G12G19G13
  20462615.261    20462618.193    21789295.051 9 -51699503.863 8
  22182934.194    22182939.587    58333097.929 9 -68980689.712 7
  21930695.386    21930699.833    14019404.299 9 -21603534.888 8
  21210662.565    21210666.284    76641586.887 9-124745559.913 8
 90  3  1  9  6 14.0800000  0  4G 3G12G19G13
  20459982.741    20459986.837    21775462.872 9 -51710282.195 9
  22191858.380    22191863.457    58379993.532 8 -68944147.691 9
  21933263.958    21933267.639    14032901.934 8 -21593017.252 9
  21213789.305    21213793.329    76658017.550 9-124732756.817 9
 90  3  1  9  6 29.0800000  0  4G 3G12G19G13
  20457356.110    20457358.617    21761658.603 9 -51721038.773 8
  22200789.032    22200794.196    58426926.786 8 -68907576.344 8
  21935853.436    21935857.073    14046509.069 9 -21582414.286 9
  21216919.581    21216923.343    76674464.027 9-124719941.383 8
 90  3  1  9  6 44.0800000  0  4G 3G12G19G13
  20454733.468    20454737.019    21747881.908 9 -51731773.876 8
  22209726.640    22209733.220    58473897.103 8 -68870976.134 8
  21938464.234    21938467.514    14060225.432 9 -21571726.216 9
  21220051.763    21220055.511    76690926.367 9-124707113.606 8
 90  3  1  9  6 59.0800000  0  4G 3G12G19G13
  20452117.969    20452119.564    21734133.022 9 -51742487.304 8
  22218672.604    22218678.740    58520904.309 8 -68834347.154 9
  21941094.135    21941097.694    14074050.967 9 -21560953.074 8
  21223187.572    21223191.781    76707404.706 9-124694273.352 9
 90  3  1  9  7 14.0800000  0  4G 3G12G19G13
  20449507.071    20449510.429    21720411.769 9 -51753179.201 7
  22227625.208    22227630.228    58567948.021 9 -68797689.722 8
  21943747.259    21943749.795    14087985.295 9 -21550095.174 9
  21226326.226    21226330.557    76723899.063 9-124681420.623 8
 90  3  1  9  7 29.0800000  0  4G 3G12G19G13
  20446901.596    20446903.674    21706718.119 9 -51763849.593 9
  22236584.250    22236589.156    58615027.517 9 -68761004.412 9
  21946418.671    21946422.045    14102028.089 8 -21539152.757 9
  21229467.838    21229471.943    76740409.303 9-124668555.502 9
 90  3  1  9  7 44.0800000  0  4G 3G12G19G13
  20444300.407    20444304.058    21693052.358 9 -51774498.231 8
  22245549.131    22245555.096    58662142.362 9 -68724291.562 8
  21949111.382    21949114.899    14116179.177 9 -21528125.949 8
  21232613.020    21232617.190    76756935.534 9-124655677.925 8
 90  3  1  9  7 59.0800000  0  4G 3G12G19G13
  20441706.169    20441708.285    21679414.337 8 -51785125.268 8
  22254521.738    22254527.116    58709292.309 9 -68687551.375 8
  21951825.199    21951828.036    14130438.199 9 -21517015.072 8
  21235761.443    21235764.224    76773477.966 9-124642787.719 8
 90  3  1  9  8 14.0800000  0  4G 3G12G19G13
  20439115.357    20439117.681    21665804.049 9 -51795730.702 8
  22263500.899    22263505.563    58756477.102 9 -68650784.012 8
  21954558.384    21954561.013    14144804.957 9 -21505820.219 8
  21238911.615    21238916.056    76790036.559 9-124629884.929 9
 90  3  1  9  8 29.0800000  0  4G 3G12G19G13
  20436531.099    20436533.073    21652221.637 8 -51806314.415 8
  22272486.643    22272491.749    58803696.193 9 -68613989.929 8
  21957313.154    21957316.634    14159279.450 8 -21494541.415 9
  21242066.377    21242070.103    76806611.244 9-124616969.586 9
 90  3  1  9  8 44.0800000  0  4G 3G12G19G13
  20433952.267    20433954.528    21638667.255 9 -51816876.281 8
  22281479.512    22281485.148    58850949.041 9 -68577169.533 7
  21960088.680    21960090.006    14173861.245 8 -21483179.015 8
  21245223.124    21245228.178    76823202.336 9-124604041.470 8
 90  3  1  9  8 59.0800000  0  4G 3G12G19G13
  20431377.940    20431380.390    21625140.515 9 -51827416.598 8
  22290477.304    22290482.224    58898235.191 9 -68540323.182 8
  21962882.871    21962886.116    14188550.008 8 -21471733.247 8
  21248383.628    21248387.432    76839809.578 9-124591100.767 8
 90  3  1  9  9 14.0800000  0  4G 3G12G19G13
  20428809.122    20428811.536    21611641.379 9 -51837935.426 8
  22299481.507    22299485.139    58945554.157 9 -68503451.265 8
  21965699.328    21965702.309    14203345.217 9 -21460204.516 7
  21251547.179    21251550.501    76856433.001 9-124578147.461 9
 90  3  1  9  9 29.0800000  0  4G 3G12G19G13
  20426245.162    20426248.083    21598170.051 9 -51848432.556 8
  22308492.577    22308497.312    58992905.439 9 -68466554.178 8
  21968534.459    21968537.575    14218246.608 9 -21448593.069 8
  21254712.966    21254717.422    76873072.377 9-124565181.722 8
 90  3  1  9  9 44.0800000  0  4G 3G12G19G13
  20423686.506    20423690.086    21584726.395 9 -51858908.136 9
  22317509.200    22317513.319    59040288.631 9 -68429632.210 9
  21971389.887    21971393.017    14233254.020 9 -21436898.994 8
  21257882.771    21257886.207    76889728.017 9-124552203.300 9
 90  3  1  9  9 59.0800000  0  4G 3G12G19G13
  20421134.236    20421137.272    21571310.507 9 -51869362.084 9
  22326531.203    22326537.425    59087703.458 9 -68392685.596 9
  21974265.870    21974270.217    14248367.380 8 -21425122.384 8
  21261055.737    21261059.356    76906400.131 8-124539212.060 9
 90  3  1  9 10 14.0800000  0  4G 3G12G19G13
  20418586.206    20418590.001    21557922.597 9 -51879794.228 8
  22335559.616    22335565.252    59135149.559 9 -68355714.625 9
  21977161.714    21977165.975    14263586.230 8 -21413263.536 7
  21264230.535    21264234.748    76923088.673 9-124526207.995 8
 90  3  1  9 10 29.0800000  0  4G 3G12G19G13
  20416044.697    20416047.196    21544562.747 9 -51890204.514 8
  22344594.269    22344600.634    59182626.514 9 -68318719.595 8
  21980078.221    21980082.639    14278910.426 9 -21401322.619 9
  21267409.147    21267413.814    76939793.810 9-124513191.019 8
 90  3  1  9 10 44.0800000  0  4G 3G12G19G13
  20413507.026    20413509.318    21531230.728 8 -51900593.110 8
  22353635.017    22353640.566    59230133.956 9 -68281700.824 8
  21983014.382    21983018.078    14294339.663 8 -21389299.857 7
  21270592.138    21270595.599    76956515.684 9-124500160.994 9
 90  3  1  9 10 59.0800000  0  4G 3G12G19G13
  20410975.783    20410978.866    21517926.749 9 -51910959.844 9
  22362679.829    22362687.925    59277671.386 9 -68244658.688 9
  21985970.547    21985973.777    14309873.661 8 -21377195.465 8
  21273776.906    21273779.767    76973254.161 9-124487118.022 8
 90  3  1  9 11 14.0800000  0  4G 3G12G19G13
  20408449.045    20408451.927    21504650.686 9 -51921304.835 8
  22371731.967    22371739.248    59325238.305 9 -68207593.557 8
  21988945.478    21988950.247    14325512.142 8 -21365009.661 8
  21276965.223    21276970.051    76990009.117 9-124474062.237 8
 90  3  1  9 11 29.0800000  0  4G 3G12G19G13
  20405929.099    20405930.125    21491402.604 9 -51931628.048 8
  22380789.456    22380794.577    59372834.332 9 -68170505.760 8
  21991941.179    21991945.339    14341254.925 9 -21352742.598 7
  21280156.767    21280160.590    77006780.800 9-124460993.391 8
 90  3  1  9 11 44.0800000  0  4G 3G12G19G13
  20403413.143    20403415.220    21478182.568 9 -51941929.386 8
  22389853.443    22389858.262    59420459.196 9 -68133395.491 8
  21994957.364    21994961.252    14357101.644 8 -21340394.531 7
  21283351.848    21283355.611    77023569.389 8-124447911.387 8
 90  3  1  9 11 59.0800000  0  4G 3G12G19G13
  20400902.073    20400905.384    21464990.734 9 -51952208.760 9
  22398920.405    22398927.357    59468112.350 9 -68096263.177 9
  21997993.810    21997996.289    14373052.230 8 -21327965.516 8
  21286549.506    21286553.333    77040374.715 9-124434816.337 8
 90  3  1  9 12 14.0800000  0  4G 3G12G19G13
  20398397.224    20398399.312    21451826.899 9 -51962466.309 8
  22407994.579    22407999.714    59515793.349 8 -68059109.176 9
  22001048.308    22001051.538    14389106.237 9 -21315455.918 7
  21289751.213    21289754.352    77057196.849 9-124421708.187 9
 90  3  1  9 12 29.0800000  0  4G 3G12G19G13
  20395897.268    20395900.143    21438691.546 9 -51972701.635 8
  22417071.987    22417078.281    59563501.904 9 -68021933.702 8
  22004121.507    22004127.027    14405263.349 9 -21302865.971 9
  21292955.517    21292959.436    77074036.174 9-124408586.652 8
 90  3  1  9 12 44.0800000  0  4G 3G12G19G13
  20393403.684    20393405.994    21425584.406 9 -51982914.992 8
  22426156.979    22426161.942    59611237.625 8 -67984737.050 9
  22007215.828    22007219.573    14421523.373 9 -21290195.849 9
  21296163.340    21296166.383    77090892.584 9-124395451.789 8
 90  3  1  9 12 59.0800000  0  4G 3G12G19G13
  20390914.661    20390917.007    21412505.583 9 -51993106.285 8
  22435245.806    22435250.927    59659000.027 9 -67947519.627 9
  22010329.651    22010333.697    14437886.087 9 -21277445.693 7
  21299374.352    21299378.068    77107766.029 9-124382303.661 8
 90  3  1  9 13 14.0800000  0  4G 3G12G19G13
  20388431.458    20388433.232    21399454.840 9 -52003275.696 8
  22444340.013    22444345.420    59706788.550 8 -67910281.835 9
  22013463.328    22013465.700    14454351.115 8 -21264615.831 9
  21302587.288    21302591.580    77124656.510 9-124369142.245 7
 90  3  1  9 13 29.0800000  0  4G 3G12G19G13
  20385953.664    20385955.996    21386432.456 9 -52013423.022 8
  22453437.826    22453443.433    59754602.765 9 -67873024.026 8
  22016616.395    22016619.374    14470918.385 9 -21251706.306 8
  21305805.364    21305809.548    77141564.137 9-124355967.470 8
 90  3  1  9 13 44.0800000  0  4G 3G12G19G13
  20383480.340    20383483.441    21373438.323 9 -52023548.311 9
  22462540.187    22462547.472    59802442.555 1 -67835746.281 4
  22019788.084    22019792.291    14487587.401 8 -21238717.485 8
  21309026.356    21309030.606    77158489.089 7-124342779.202 9
 90  3  1  9 13 59.0800000  0  4G 3G12G19G13
  20381013.084    20381016.301    21360472.632 9 -52033651.462 8
  22471650.226    22471656.515    59850307.152 8 -67798449.210 8
  22022978.081    22022986.421    14504357.942 1 -21225649.555 1
  21312250.475    21312253.432    77175431.227 9-124329577.542 7
 90  3  1  9 14 14.0800000  0  4G 3G12G19G13
  20378551.602    20378553.413    21347535.389 9 -52043732.418 8
  22480762.635    22480769.611    59898196.260 9 -67761133.040 9
  22026189.314    22026195.635    14521229.976 1 -21212502.545 1
  21315477.384    21315482.201    77192390.816 9-124316362.271 8
 90  3  1  9 14 29.0800000  0  4G 3G12G19G13
  20376094.672    20376097.778    21334626.579 9 -52053791.228 8
  22489880.423    22489886.698    59946109.560 9 -67723798.013 9
  22029419.064    22029422.981    14538202.874 1 -21199276.943 1
  21318707.849    21318711.722    77209367.887 8-124303133.389 8
 90  3  1  9 14 44.0800000  0  4G 3G12G19G13
  20373644.283    20373644.426    21321746.050 1 -52063827.993 1
  22499002.204    22499008.767    59994046.563 9 -67686444.536 8
  22032668.562    22032672.647    14555276.390 8 -21185972.939 8
  21321942.663    21321945.702    77226362.275 6-124289891.011 5
 90  3  1  9 14 59.0800000  0  4G 3G12G19G13
                  20371198.106    21310288.933 7
  22508128.349    22508136.072    60042006.694 9 -67649073.023 9
  22035936.646    22035941.042    14572449.963 8 -21172590.950 7
  21325179.706    21325183.755    77243374.043 6-124276635.106 6
 90  3  1  9 15 14.0800000  0  4G 3G12G19G13
                  19995595.967   -16618186.994 1
  22517258.392    22517265.441    60089989.730 7 -67611683.651 7
  22039223.591    22039228.233    14589723.824 8 -21159130.824 7
  21328420.097    21328424.049    77260403.257 8-124263365.575 7
 90  3  1  9 15 29.0800000  0  4G 3G12G19G13
                  19990374.755   -16737118.212 1
  22526394.893    22526401.212    60137995.053 9 -67574276.919 8
                  22042531.156    14607097.283 9
  21331663.167    21331668.541    77277450.001 5-124250082.410 5
 90  3  1  9 15 44.0800000  0  3G12G19G13
  22535535.393    22535540.304    60186022.303 9 -67536853.091 8
  22045855.451    22045858.609    14624570.246 8 -21131977.813 7
  21334912.385    21334913.043    77294514.174 5-124236785.668 3
 90  3  1  9 15 59.0800000  0  3G12G19G13
  22544677.839    22544683.396    60234071.130 9 -67499412.454 9
  22049199.750    22049203.684    14642142.150 1 -21118285.431 1
  21338162.014    21338165.228    77311596.057 8-124223475.093 7
 90  3  1  9 16 14.0800000  0  3G12G19G13
  22553826.279    22553830.234    60282141.058 9 -67461955.400 8
  22052564.619    22052564.937    14659813.122 1 -21104515.895 1
  21341415.743    21341419.376    77328695.940 9-124210150.529 9
 90  3  1  9 16 29.0800000  0  3G12G19G13
  22562976.492    22562982.851    60330231.735 9 -67424482.160 9
  22055943.647    22055946.980    14677582.665 9 -21090669.507 8
  21344672.783    21344676.165    77345813.332 9-124196812.306 8
 90  3  1  9 16 44.0800000  0  4G 3G12G19G13
                  20354196.965   -17042739.057 9
  22572131.017    22572137.885    60378342.689 9 -67386993.081 9
  22059342.920    22059347.304    14695450.317 9 -21076746.681 8
  21347933.510    21347937.167    77362948.672 9-124183460.097 7
 90  3  1  9 16 59.0800000  0  4G 3G12G19G13
                  20351827.634   -17055363.642 9
  22581290.186    22581295.996    60426473.404 9 -67349488.646 8
  22062763.217    22062766.669    14713415.905 9 -21062747.543 9
  21351197.109    21351202.071    77380101.797 9-124170094.029 8
 90  3  1  9 17 14.0800000  0  4G 3G12G19G13
  20349430.649    20349433.169   -17067958.712 9  21907493.829 9
  22590453.622    22590458.945    60474623.698 9 -67311968.940 9
  22066200.213    22066203.645    14731479.405 9 -21048672.099 8
  21354465.830    21354468.900    77397272.875 9-124156713.957 8
 90  3  1  9 17 29.0800000  0  4G 3G12G19G13
  20347040.190    20347042.361   -17080525.135 9  21897701.802 8
  22599620.491    22599625.956    60522793.069 9 -67274434.370 8
  22069655.252    22069659.522    14749640.200 9 -21034520.835 8
  21357735.907    21357739.544    77414462.006 9-124143319.828 8
 90  3  1  9 17 44.0800000  0  4G 3G12G19G13
  20344653.635    20344655.521   -17093062.657 9  21887932.295 7
  22608790.722    22608795.801    60570981.226 9 -67236885.176 9
  22073129.711    22073134.760    14767898.228 8 -21020293.843 8
  21361010.816    21361014.118    77431669.162 9-124129911.656 8
 90  3  1  9 17 59.0800000  0  4G 3G12G19G13
  20342273.737    20342276.061   -17105571.349 9  21878185.254 8
  22617963.013    22617969.511    60619187.517 9 -67199321.836 7
  22076623.134    22076627.087    14786252.943 9 -21005991.508 8
  21364288.217    21364293.209    77448894.475 8-124116489.335 8
 90  3  1  9 18 14.0800000  0  3G 3G19G13
  20339898.725    20339901.872   -17118051.390 9  21868460.541 8
  22080134.393    22080137.147    14804703.865 9 -20991614.191 7
  21367569.499    21367573.925    77466137.768 9-124103052.995 8
 90  3  1  9 18 29.0800000  0  3G 3G19G13
  20337530.154    20337532.153   -17130502.724 8  21858758.190 8
  22083663.305    22083666.702    14823250.684 9 -20977162.153 8
  21370855.233    21370858.167    77483399.239 9-124089602.499 7
 90  3  1  9 18 44.0800000  0  3G 3G19G13
  20335165.286    20335168.045   -17142925.085 9  21849078.406 8
  22087210.626    22087214.437    14841893.475 9 -20962635.339 8
  21374143.345    21374147.095    77500679.057 9-124076137.720 8
 90  3  1  9 18 59.0800000  0  3G 3G19G13
  20332806.321    20332809.684   -17155318.540 9  21839421.192 8
  22090776.503    22090781.010    14860631.731 8 -20948034.139 9
  21377434.498    21377438.024    77517977.111 9-124062658.699 8
 90  3  1  9 19 14.0800000  0  3G 3G19G13
  20330454.336    20330455.389   -17167683.106 9  21829786.469 7
  22094360.606    22094364.523    14879465.205 9 -20933358.736 9
  21380729.320    21380734.016    77535293.429 9-124049165.469 8
 90  3  1  9 19 29.0800000  0  3G 3G19G13
  20328106.422    20328108.984   -17180018.529 8  21820174.466 6
  22097963.076    22097965.656    14898393.604 7 -20918609.360 7
  21384028.704    21384032.075    77552628.129 8-124035657.907 7
 90  3  1  9 19 44.0800000  0  4G 3G16G19G13
  20325764.615    20325767.746   -17192324.897 9  21810585.081 8
                  22622066.515   -18047330.163 9
  22101583.301    22101585.735    14917416.566 9 -20903786.266 8
  21387329.468    21387334.203    77569981.348 9-124022135.895 8
 90  3  1  9 19 59.0800000  0  4G 3G16G19G13
  20323428.662    20323431.831   -17204602.077 9  21801018.425 8
                  22611127.885   -18104705.473 9
  22105220.472    22105224.442    14936534.121 9 -20888889.480 9
  21390635.990    21390639.619    77587353.243 9-124008599.355 8
 90  3  1  9 20 14.0800000  0  4G 3G16G19G13
  20321097.853    20321101.188   -17216850.138 9  21791474.475 8
                  22600299.680   -18162064.098 7
  22108877.199    22108881.212    14955746.030 9 -20873919.167 8
  21393945.446    21393949.168    77604743.741 9-123995048.299 8
 90  3  1  9 20 29.0800000  0  4G 3G16G19G13
  20318773.074    20318775.302   -17229068.764 9  21781953.488 8
  22589344.668    22589349.406   -18219406.359 9  23394801.625 8
  22112550.312    22112553.496    14975051.772 9 -20858875.738 8
  21397258.422    21397262.724    77622152.846 9-123981482.755 9
 90  3  1  9 20 44.0800000  0  4G 3G16G19G13
  20316452.488    20316455.915   -17241258.274 8  21772455.163 7
  22578435.899    22578440.520   -18276731.651 8  23350132.588 9
  22116241.897    22116245.551    14994450.744 9 -20843759.678 8
  21400574.924    21400578.641    77639580.605 8-123967902.676 8
 90  3  1  9 20 59.0800000  0  4G 3G16G19G13
  20314138.796    20314141.302   -17253418.370 8  21762979.756 7
  22567529.864    22567535.292   -18334039.609 9  23305477.073 8
  22119951.255    22119954.323    15013942.871 8 -20828571.025 8
  21403894.927    21403898.640    77657027.381 9-123954307.783 9
 90  3  1  9 21 14.0800000  0  4G 3G16G19G13
  20311830.929    20311834.625   -17265549.014 9  21753527.309 8
  22556629.005    22556633.119   -18391329.905 8  23260835.323 9
  22123677.768    22123681.865    15033527.872 9 -20813309.987 7
  21407217.823    21407222.555    77674493.148 9-123940698.090 8
 90  3  1  9 21 29.0800000  0  4G 3G16G19G13
  20309527.625    20309531.153   -17277650.295 9  21744097.760 8
  22545728.976    22545733.693   -18448602.381 8  23216207.445 8
  22127422.654    22127425.237    15053205.336 9 -20797976.916 9
  21410545.655    21410549.033    77691977.740 9-123927073.725 8
 90  3  1  9 21 44.0800000  0  4G 3G16G19G13
  20307230.678    20307233.653   -17289722.043 8  21734691.201 8
  22534834.887    22534839.910   -18505856.488 9  23171593.897 9
  22131183.795    22131188.095    15072975.265 9 -20782571.797 9
  21413876.281    21413880.724    77709481.173 9-123913434.671 8
 90  3  1  9 21 59.0800000  0  4G 3G16G19G13
  20304939.188    20304941.693   -17301764.350 9  21725307.574 8
  22523942.408    22523947.696   -18563091.950 9  23126994.868 9
  22134963.682    22134969.269    15092837.011 8 -20767095.134 8
  21417211.584    21417215.015    77727003.888 9-123899780.595 8
 90  3  1  9 22 14.0800000  0  4G 3G16G19G13
  20302652.864    20302656.671   -17313777.344 8  21715946.786 9
  22513054.939    22513059.597   -18620308.551 9  23082410.530 9
  22138761.157    22138765.783    15112790.193 8 -20751547.204 8
  21420549.058    21420553.873    77744545.667 8-123886111.670 7
 90  3  1  9 22 29.0800000  0  4G 3G16G19G13
  20300372.546    20300374.790   -17325760.610 9  21706609.182 8
  22502170.844    22502175.567   -18677505.816 9  23037841.263 9
  22142575.643    22142579.785    15132834.432 9 -20735928.320 7
  21423890.704    21423894.624    77762106.527 9-123872427.870 8
 90  3  1  9 22 44.0800000  0  4G 3G16G19G13
  20298098.743    20298099.893   -17337714.523 9  21697294.448 8
  22491290.141    22491293.154   -18734683.492 9  22993287.251 9
  22146407.200    22146410.812    15152969.260 9 -20720238.860 8
  21427236.107    21427239.047    77779686.528 8-123858729.170 8
 90  3  1  9 22 59.0800000  0  4G 3G16G19G13
  20295828.359    20295831.246   -17349638.753 9  21688002.815 8
  22480413.932    22480418.418   -18791841.085 9  22948748.902 9
  22150255.914    22150260.070    15173194.965 9 -20704478.573 9
  21430585.129    21430588.563    77797285.637 9-123845015.579 8
 90  3  1  9 23 14.0800000  0  4G 3G16G19G13
  20293565.980    20293568.715   -17361533.379 8  21678734.273 7
  22469541.043    22469545.056   -18848978.442 9  22904226.314 9
  22154121.629    22154125.582    15193510.971 8 -20688647.923 8
  21433937.659    21433941.864    77814904.246 9-123831286.792 8
 90  3  1  9 23 29.0800000  0  4G 3G16G19G13
  20291308.127    20291310.143   -17373398.394 9  21669488.801 7
  22458671.265    22458675.507   -18906095.042 9  22859719.894 9
  22158004.872    22158008.326    15213916.904 8 -20672747.188 8
  21437293.710    21437297.688    77832542.166 9-123817542.955 9
 90  3  1  9 23 44.0800000  0  4G 3G16G19G13
  20289055.098    20289058.995   -17385233.587 8  21660266.561 8
  22447807.267    22447811.325   -18963190.485 9  22815229.963 9
  22161905.455    22161908.267    15234412.690 8 -20656776.454 7
  21440654.708    21440658.473    77850199.743 8-123803783.808 8
 90  3  1  9 23 59.0800000  0  4G 3G16G19G13
  20286809.019    20286811.234   -17397038.866 8  21651067.626 8
  22436945.853    22436949.866   -19020264.539 9  22770756.690 8
  22165822.597    22165824.949    15254997.722 9 -20640736.170 9
  21444018.182    21444020.790    77867876.913 9-123790009.385 9
 90  3  1  9 24 14.0800000  0  4G 3G16G19G13
  20284567.885    20284571.210   -17408814.424 9  21641891.849 8
  22426089.599    22426092.453   -19077316.828 9  22726300.385 8
  22169757.393    22169761.492    15275671.568 8 -20624626.687 7
  21447385.148    21447389.410    77885573.522 8-123776219.838 8
 90  3  1  9 24 29.0800000  0  4G 3G16G19G13
  20282332.749    20282335.640   -17420559.938 9  21632739.496 7
  22415237.256    22415240.498   -19134346.857 9  22681861.442 8
  22173708.520    22173711.029    15296434.346 8 -20608447.923 9
  21450756.789    21450761.061    77903289.654 9-123762415.047 8
 90  3  1  9 24 44.0800000  0  4G 3G16G19G13
  20280103.818    20280106.656   -17432275.501 9  21623610.468 7
  22404387.254    22404392.627   -19191354.299 9  22637440.088 9
  22177675.785    22177678.367    15317285.692 8 -20592200.140 8
  21454132.619    21454136.461    77921025.594 9-123748594.827 8
 90  3  1  9 24 59.0800000  0  4G 3G16G19G13
  20277879.935    20277882.651   -17443960.837 9  21614505.019 9
  22393544.528    22393548.348   -19248338.819 9  22593036.588 8
  22181658.979    22181664.306    15338224.954 8 -20575883.856 8
  21457510.088    21457515.151    77938781.401 8-123734759.128 8
 90  3  1  9 25 14.0800000  0  4G 3G16G19G13
  20275662.033    20275664.361   -17455616.176 9  21605422.910 8
  22382705.279    22382709.778   -19305299.999 9  22548651.280 9
  22185661.271    22185664.643    15359251.937 8 -20559499.217 8
  21460893.304    21460897.718    77956556.911 9-123720908.075 8
 90  3  1  9 25 29.0800000  0  4G 3G16G19G13
  20273449.953    20273453.486   -17467241.196 9  21596364.473 7
  22371870.622    22371875.167   -19362237.395 9  22504284.512 8
  22189679.407    22189683.921    15380366.453 9 -20543046.364 8
  21464280.111    21464283.432    77974352.399 9-123707041.459 9
 90  3  1  9 25 44.0800000  0  4G 3G16G19G13
  20271244.052    20271247.686   -17478835.830 9  21587329.684 9
  22361039.573    22361043.881   -19419150.727 9  22459936.485 8
  22193713.183    22193717.051    15401568.298 8 -20526525.479 8
  21467670.026    21467673.500    77992168.059 9-123693159.139 8
 90  3  1  9 25 59.0800000  0  4G 3G16G19G13
  20269042.744    20269044.922   -17490399.883 8  21578318.722 7
  22350214.555    22350218.344   -19476039.517 9  22415607.585 8
  22197765.388    22197768.183    15422857.104 9 -20509936.812 8
  21471063.958    21471067.698    78010004.070 8-123679260.940 9
 90  3  1  9 26 14.0800000  0  4G 3G16G19G13
  20266848.677    20266851.171   -17501933.515 9  21569331.479 9
  22339394.115    22339398.372   -19532903.357 9  22371298.132 9
  22201833.175    22201837.430    15444232.611 8 -20493280.593 8
  21474462.037    21474466.450    78027860.566 9-123665346.801 9
 90  3  1  9 26 29.0800000  0  4G 3G16G19G13
  20264658.970    20264660.713   -17513436.628 9  21560367.996 8
  22328577.789    22328582.347   -19589742.010 9  22327008.295 9
  22205916.216    22205920.987    15465694.627 9 -20476556.935 8
  21477863.387    21477868.114    78045737.370 9-123651416.833 9
 90  3  1  9 26 44.0800000  0  4G 3G16G19G13
  20262475.832    20262478.660   -17524909.254 9  21551428.274 8
  22317766.635    22317770.320   -19646555.272 8  22282738.255 9
  22210017.231    22210020.457    15487242.296 8 -20459766.517 8
  21481269.474    21481273.210    78063634.516 9-123637471.010 8
 90  3  1  9 26 59.0800000  0  4G 3G16G19G13
  20260299.080    20260302.038   -17536351.383 9  21542512.314 9
  22306959.446    22306964.618   -19703342.582 9  22238488.435 9
  22214133.799    22214138.013    15508875.378 8 -20442909.557 8
  21484678.543    21484682.784    78081552.019 9-123623509.334 7
 90  3  1  9 27 14.0800000  0  4G 3G16G19G13
  20258127.218    20258130.408   -17547762.917 9  21533620.196 8
  22296157.861    22296162.688   -19760103.883 8  22194258.884 8
  22218266.735    22218270.535    15530593.777 8 -20425986.130 7
  21488092.724    21488096.810    78099490.089 8-123609531.621 8
 90  3  1  9 27 29.0800000  0  4G 3G16G19G13
  20255961.627    20255964.149   -17559143.781 9  21524751.978 8
  22285361.473    22285366.740   -19816838.478 9  22150050.168 9
  22222414.670    22222419.026    15552397.044 8 -20408996.553 8
  21491510.906    21491514.278    78117448.548 9-123595538.032 9
 90  3  1  9 27 44.0800000  0  4G 3G16G19G13
  20253801.584    20253804.526   -17570493.680 9  21515907.906 8
  22274570.233    22274575.606   -19873546.043 8  22105862.484 9
  22226579.877    22226585.176    15574284.742 9 -20391941.204 7
  21494931.282    21494936.174    78135427.580 9-123581528.403 8
 90  3  1  9 27 59.0800000  0  4G 3G16G19G13
  20251648.068    20251650.175   -17581812.798 9  21507087.800 8
  22263784.750    22263789.822   -19930226.291 9  22061696.083 8
  22230761.837    22230765.807    15596256.886 7 -20374820.049 7
  21498357.446    21498360.463    78153427.438 9-123567502.550 9
 90  3  1  9 28 14.0800000  0  4G 3G16G19G13
  20249499.550    20249503.158   -17593100.882 9  21498291.872 8
  22253004.176    22253009.284   -19986878.593 8  22017551.473 9
  22234957.448    22234961.806    15618313.387 7 -20357633.187 8
  21501785.983    21501789.722    78171448.322 9-123553460.298 8
 90  3  1  9 28 29.0800000  0  4G 3G16G19G13
  20247358.415    20247360.261   -17604358.041 9  21489520.075 8
  22242229.288    22242234.083   -20043502.882 9  21973428.677 9
  22239172.178    22239176.433    15640453.599 8 -20340381.074 7
  21505219.313    21505223.094    78189490.139 9-123539401.744 9
 90  3  1  9 28 44.0800000  0  4G 3G16G19G13
  20245222.103    20245224.242   -17615584.197 9  21480772.426 8
  22231459.482    22231463.518   -20100098.967 9  21929327.854 9
  22243399.743    22243404.800    15662676.828 8 -20323064.279 7
  21508656.011    21508660.117    78207552.959 8-123525326.822 9
 90  3  1  9 28 59.0800000  0  4G 3G16G19G13
  20243090.784    20243093.886   -17626779.461 8  21472048.829 8
  22220694.763    22220700.136   -20156666.437 9  21885249.339 9
  22247646.841    22247650.623    15684982.982 8 -20305682.865 6
  21512097.151    21512100.979    78225636.499 9-123511235.742 8
 90  3  1  9 29 14.0800000  0  4G 3G16G19G13
  20240966.681    20240969.661   -17637943.624 9  21463349.468 8
  22209936.325    22209940.560   -20213204.687 9  21841193.599 8
  22251906.040    22251910.381    15707371.510 8 -20288237.261 8
  21515542.513    21515547.705    78243741.071 8-123497128.272 9
 90  3  1  9 29 29.0800000  0  4G 3G16G19G13
  20238847.891    20238850.250   -17649076.967 9  21454674.113 8
  22199182.531    22199187.226   -20269713.622 9  21797160.691 9
  22256183.272    22256184.938    15729842.128 8 -20270727.697 8
  21518991.346    21518996.317    78261866.801 8-123483004.321 9
 90  3  1  9 29 44.0800000  0  4G 3G16G19G13
  20236735.655    20236739.025   -17660179.072 9  21446023.101 8
  22188435.539    22188439.725   -20326192.915 9  21753150.890 9
  22260472.767    22260476.865    15752394.518 8 -20253154.406 8
  21522444.596    21522449.281    78280013.666 8-123468863.906 9
 90  3  1  9 29 59.0800000  0  4G 3G16G19G13
  20234629.536    20234630.975   -17671249.956 9  21437396.411 8
  22177693.694    22177698.530   -20382642.046 9  21709164.583 8
  22264780.407    22264784.676    15775028.272 8 -20235517.733 7
  21525902.425    21525906.333    78298181.693 8-123454707.001 7
 90  3  1  9 30 14.0800000  0  4G 3G16G19G13
  20232528.031    20232530.510   -17682289.475 9  21428794.186 8
  22166956.906    22166961.305   -20439060.664 9  21665202.059 9
  22269102.596    22269108.338    15797743.331 8 -20217817.704 7
  21529363.894    21529367.742    78316370.871 9-123440533.613 9
 90  3  1  9 30 29.0800000  0  4G 3G16G19G13
  20230433.473    20230436.305   -17693297.745 9  21420216.298 8
  22156226.272    22156231.523   -20495448.551 9  21621263.474 9
  22273441.129    22273444.454    15820539.178 8 -20200054.716 8
  21532828.511    21532833.568    78334581.311 9-123426343.678 9
 90  3  1  9 30 44.0800000  0  4G 3G16G19G13
  20228344.756    20228347.329   -17704274.640 9  21411662.847 8
  22145502.912    22145505.817   -20551805.295 9  21577349.149 9
  22277794.028    22277798.484    15843415.589 8 -20182228.957 7
  21536298.873    21536302.742    78352813.085 9-123412137.092 9
 90  3  1  9 30 59.0800000  0  4G 3G16G19G13
  20226261.302    20226264.177   -17715220.221 9  21403133.814 7
  22134783.702    22134788.518   -20608130.526 9  21533459.374 8
  22282162.795    22282166.565    15866371.999 8 -20164340.843 8
  21539771.350    21539775.505    78371066.266 8-123397913.834 9
 90  3  1  9 31 14.0800000  0  4G 3G16G19G13
  20224184.668    20224187.910   -17726134.280 9  21394629.336 7
  22124071.361    22124076.234   -20664423.946 9  21489594.401 8
  22286547.016    22286550.814    15889408.304 8 -20146390.483 7
  21543249.412    21543252.859    78389340.759 9-123383673.953 9
 90  3  1  9 31 29.0800000  0  4G 3G16G19G13
  20222113.882    20222116.925   -17737016.565 9  21386149.639 8
  22113365.946    22113369.788   -20720685.174 9  21445754.508 9
  22290944.504    22290948.917    15912524.033 8 -20128378.229 7
  21546730.856    21546735.660    78407636.793 9-123369417.295 9
 90  3  1  9 31 44.0800000  0  4G 3G16G19G13
  20220049.472    20220052.065   -17747867.409 9  21377694.442 8
  22102666.305    22102669.925   -20776913.773 9  21401940.032 9
  22295359.788    22295362.072    15935719.002 8 -20110304.250 7
  21550216.292    21550221.559    78425954.446 9-123355143.802 8
 90  3  1  9 31 59.0800000  0  4G 3G16G19G13
  20217990.424    20217993.350   -17758686.577 9  21369263.905 8
  22091971.722    22091975.507   -20833109.563 9  21358151.125 8
  22299788.125    22299791.651    15958992.703 8 -20092168.908 7
  21553706.416    21553710.442    78444293.744 9-123340853.446 9
 90  3  1  9 32 14.0800000  0  4G 3G16G19G13
  20215937.200    20215939.663   -17769474.071 9  21360858.061 8
  22081284.242    22081288.270   -20889272.044 9  21314388.181 8
  22304232.975    22304234.628    15982344.835 8 -20073972.451 8
  21557200.729    21557204.204    78462654.734 9-123326546.170 8
 90  3  1  9 32 29.0800000  0  4G 3G16G19G13
  20213890.437    20213893.754   -17780229.630 9  21352477.105 8
  22070602.540    22070608.764   -20945400.784 9  21270651.520 8
  22308691.304    22308694.401    16005775.179 8 -20055715.055 7
  21560699.024    21560703.100    78481037.682 9-123312221.796 9
 90  3  1  9 32 44.0800000  0  4G 3G16G19G13
  20211850.277    20211853.123   -17790953.294 9  21344120.995 8
  22059928.346    22059933.662   -21001495.369 9  21226941.486 8
  22313164.143    22313168.370    16029283.214 9 -20037397.097 7
  21564200.322    21564204.988    78499442.617 9-123297880.299 9
 90  3  1  9 32 59.0800000  0  4G 3G16G19G13
  20209814.479    20209817.669   -17801644.896 8  21335789.873 8
  22049259.856    22049265.929   -21057555.418 9  21183258.362 9
  22317652.078    22317654.787    16052868.508 8 -20019018.971 7
  21567707.180    21567711.538    78517869.639 9-123283521.585 9
 90  3  1  9 33 14.0800000  0  4G 3G16G19G13
  20207786.444    20207789.500   -17812304.351 9  21327483.790 8
  22038599.357    22038603.622   -21113580.765 9  21139602.271 8
  22322154.908    22322158.491    16076531.002 9 -20000580.671 7
  21571217.568    21571222.372    78536319.006 9-123269145.446 8
 90  3  1  9 33 29.0800000  0  4G 3G16G19G13
  20205763.690    20205768.908   -17822931.670 9  21319202.752 8
  22027945.198    22027948.503   -21169570.872 9  21095973.650 9
  22326671.533    22326675.843    16100270.359 9 -19982082.481 8
  21574733.693    21574737.494    78554790.487 9-123254752.103 9
 90  3  1  9 33 44.0800000  0  4G 3G16G19G13
  20203748.390    20203751.580   -17833526.834 9  21310946.754 8
  22017297.033    22017302.090   -21225525.573 8  21052372.603 8
  22331204.412    22331208.109    16124085.848 8 -19963524.977 8
  21578252.245    21578256.836    78573284.184 9-123240341.432 8
 90  3  1  9 33 59.0800000  0  4G 3G16G19G13
  20201737.169    20201740.938   -17844089.793 9  21302715.880 8
  22006656.295    22006660.638   -21281444.224 9  21008799.651 9
  22335751.844    22335754.456    16147977.496 9 -19944908.102 7
  21581775.234    21581780.090    78591800.265 9-123225913.308 8
 90  3  1  9 34 14.0800000  0  4G 3G16G19G13
  20199734.479    20199737.012   -17854620.167 9  21294510.381 9
  21996022.431    21996026.038   -21337326.546 8  20965255.014 8
  22340312.326    22340314.536    16171944.925 9 -19926232.179 7
  21585304.320    21585307.376    78610339.036 8-123211467.523 9
 90  3  1  9 34 29.0800000  0  4G 3G16G19G13
  20197736.933    20197739.445   -17865118.024 9  21286330.211 8
  21985395.625    21985399.782   -21393172.343 9  20921738.839 8
  22344886.389    22344891.588    16195987.827 8 -19907497.481 8
  21588836.175    21588840.376    78628900.434 9-123197004.096 8
 90  3  1  9 34 44.0800000  0  4G 3G16G19G13
  20195745.575    20195748.420   -17875583.372 8  21278175.375 8
  21974775.171    21974779.578   -21448981.040 9  20878251.551 8
  22349476.204    22349479.603    16220105.843 9 -19888704.225 7
  21592372.855    21592376.931    78647484.347 9-123182523.126 8
 90  3  1  9 34 59.0800000  0  4G 3G16G19G13
  20193760.296    20193762.759   -17886016.141 9  21270045.919 8
  21964161.957    21964166.063   -21504752.571 9  20834793.250 9
  22354080.888    22354083.382    16244298.698 9 -19869852.674 7
  21595913.730    21595917.209    78666090.938 9-123168024.493 9
 90  3  1  9 35 14.0800000  0  4G 3G16G19G13
  20191781.883    20191783.896   -17896416.134 9  21261942.009 8
  21953556.341    21953560.357   -21560486.362 9  20791364.338 9
  22358698.879    22358702.734    16268566.126 9 -19850943.006 7
  21599458.213    21599462.237    78684720.472 9-123153507.966 8
 90  3  1  9 35 29.0800000  0  4G 3G16G19G13
  20189808.159    20189810.801   -17906783.249 9  21253863.724 7
  21942958.152    21942962.058   -21616181.901 9  20747965.239 9
  22363331.591    22363333.446    16292907.703 9 -19831975.541 7
  21603008.160    21603011.727    78703372.911 9-123138973.612 8
 90  3  1  9 35 44.0800000  0  4G 3G16G19G13
  20187841.624    20187844.385   -17917117.397 9  21245811.121 8
  21932367.451    21932371.231   -21671838.851 9  20704596.216 8
  22367977.372    22367980.841    16317323.022 9 -19812950.618 8
  21606561.049    21606565.426    78722048.102 9-123124421.524 8
 90  3  1  9 35 59.0800000  0  4G 3G16G19G13
  20185881.029    20185885.017   -17927418.725 9  21237784.129 8
  21921783.709    21921787.372   -21727457.093 9  20661257.360 9
  22372636.488    22372640.801    16341811.705 8 -19793868.574 8
  21610119.802    21610123.363    78740746.083 9-123109851.674 8
 90  3  1  9 36 14.0800000  0  4G 3G16G19G13
  20183927.052    20183930.388   -17937686.938 9  21229782.905 8
  21911206.583    21911210.418   -21783035.900 9  20617949.222 9
  22377309.641    22377314.411    16366373.384 9 -19774729.619 8
  21613681.657    21613686.253    78759467.108 8-123095263.861 8
 90  3  1  9 36 29.0800000  0  4G 3G16G19G13
  20181979.652    20181982.634   -17947922.078 9  21221807.464 9
  21900637.107    21900642.492   -21838575.281 9  20574671.804 8
  22381997.848    22381999.928    16391007.815 8 -19755533.963 8
  21617248.660    21617253.523    78778211.351 8-123080657.963 8
 90  3  1  9 36 44.0800000  0  4G 3G16G19G13
  20180038.897    20180041.636   -17958123.750 9  21213858.110 8
  21890076.393    21890080.433   -21894074.529 8  20531425.663 8
  22386699.746    22386703.129    16415714.683 9 -19736281.875 8
  21620820.263    21620824.525    78796979.150 9-123066033.722 9
 90  3  1  9 36 59.0800000  0  4G 3G16G19G13
  20178103.109    20178106.032   -17968292.412 8  21205934.471 8
  21879523.239    21879527.884   -21949533.580 9  20488210.851 8
  22391414.410    22391417.721    16440493.558 9 -19716973.679 9
  21624396.898    21624400.450    78815770.199 9-123051391.338 8
 90  3  1  9 37 14.0800000  0  4G 3G16G19G13
  20176174.454    20176177.426   -17978427.602 9  21198036.917 8
  21868977.058    21868981.029   -22004951.817 9  20445027.822 9
  22396144.585    22396148.740    16465343.995 9 -19697609.714 8
  21627976.186    21627980.188    78834584.601 9-123036730.774 8
 90  3  1  9 37 29.0800000  0  4G 3G16G19G13
  20174252.695    20174256.016   -17988529.384 9  21190165.389 8
  21858440.018    21858443.510   -22060329.145 9  20401876.697 9
  22400886.752    22400891.264    16490265.925 9 -19678190.029 8
  21631561.432    21631566.043    78853422.424 9-123022051.951 8
 90  3  1  9 37 44.0800000  0  4G 3G16G19G13
  20172336.952    20172339.615   -17998597.638 9  21182319.988 8
  21847909.606    21847914.062   -22115665.061 9  20358757.826 9
  22405642.996    22405646.580    16515258.926 9 -19658714.982 8
  21635149.626    21635153.856    78872283.684 9-123007354.867 8
 90  3  1  9 37 59.0800000  0  4G 3G16G19G13
  20170427.339    20170429.395   -18008632.323 9  21174500.757 8
  21837387.370    21837390.859   -22170959.093 9  20315671.593 8
  22410412.465    22410415.376    16540322.480 8 -19639184.946 8
  21638744.446    21638748.788    78891168.710 9-122992639.272 8
 90  3  1  9 38 14.0800000  0  4G 3G16G19G13
  20168524.040    20168526.155   -18018633.223 9  21166707.829 8
  21826872.745    21826876.695   -22226211.128 9  20272618.076 9
  22415194.410    22415198.739    16565456.007 8 -19619600.401 8
  21642342.516    21642345.889    78910077.686 8-122977905.014 8
 90  3  1  9 38 29.0800000  0  4G 3G16G19G13
  20166627.379    20166630.126   -18028600.271 9  21158941.301 7
  21816367.430    21816370.669   -22281420.559 9  20229597.757 8
  22419990.492    22419994.176    16590659.419 8 -19599961.381 8
  21645945.300    21645949.079    78929010.471 8-122963152.205 9
 90  3  1  9 38 44.0800000  0  4G 3G16G19G13
  20164737.295    20164740.525   -18038533.624 9  21151201.024 8
  21805869.806    21805872.587   -22336587.173 9  20186610.812 8
  22424799.798    22424803.781    16615932.424 9 -19580268.140 8
  21649552.325    21649556.688    78947967.016 9-122948380.876 8
 90  3  1  9 38 59.0800000  0  4G 3G16G19G13
  20162852.997    20162855.200   -18048433.167 9  21143487.089 8
  21795380.023    21795382.470   -22391710.721 9  20143657.423 9
  22429622.683    22429626.839    16641274.872 8 -19560520.797 7
  21653164.134    21653167.380    78966947.508 9-122933590.881 8
 90  3  1  9 39 14.0800000  0  4G 3G16G19G13
  20160975.730    20160978.568   -18058298.569 9  21135799.744 8
  21784898.260    21784902.081   -22446790.663 9  20100738.021 9
  22434458.417    22434461.458    16666686.181 8 -19540719.778 8
  21656780.525    21656784.789    78985952.093 8-122918782.126 9
 90  3  1  9 39 29.0800000  0  4G 3G16G19G13
  20159105.100    20159108.058   -18068129.933 8  21128138.954 8
  21774424.982    21774428.517   -22501826.753 9  20057852.770 8
  22439307.127    22439310.985    16692166.217 9 -19520865.209 8
  21660401.851    21660405.337    79004980.878 8-122903954.509 8
 90  3  1  9 39 44.0800000  0  4G 3G16G19G13
  20157240.487    20157243.484   -18077927.222 9  21120504.707 8
  21763960.592    21763964.863   -22556818.376 9  20015002.182 9
  22444168.320    22444172.846    16717714.089 8 -19500957.784 9
  21664027.847    21664030.834    79024033.764 8-122889108.103 8
 90  3  1  9 39 59.0800000  0  4G 3G16G19G13
  20155382.845    20155385.897   -18087690.057 8  21112897.309 7
  21753504.757    21753507.919   -22611765.350 9  19972186.385 8
  22449042.960    22449047.958    16743329.772 7 -19480997.536 8
  21667658.206    21667661.778    79043110.902 9-122874242.814 8
 90  3  1  9 40 14.0800000  0  4G 3G16G19G13
  20153531.830    20153533.944   -18097418.541 9  21105316.663 8
  21743057.251    21743060.927   -22666667.351 9  19929405.628 9
  22453930.921    22453934.547    16769012.950 8 -19460984.668 9
  21671292.431    21671296.391    79062212.297 8-122859358.610 8
 90  3  1  9 40 29.0800000  0  4G 3G16G19G13
  20151686.552    20151689.600   -18107112.681 9  21097762.810 6
  21732617.514    21732621.454   -22721523.903 9  19886660.286 9
  22458830.815    22458835.216    16794763.279 7 -19440919.485 7
  21674932.045    21674935.537    79081338.059 9-122844455.430 8
 90  3  1  9 40 44.0800000  0  4G 3G16G19G13
  20149849.064    20149852.262   -18116772.101 8  21090235.992 8
  21722187.015    21722191.980   -22776334.704 9  19843950.597 9
  22463743.063    22463746.789    16820580.463 8 -19420802.218 8
  21678576.422    21678579.749    79100488.462 9-122829533.042 8
 90  3  1  9 40 59.0800000  0  4G 3G16G19G13
  20148016.669    20148019.671   -18126396.940 9  21082736.133 9
  21711765.908    21711770.551   -22831099.407 9  19801276.826 9
  22468667.628    22468672.929    16846463.860 8 -19400633.359 9
  21682223.798    21682228.377    79119663.684 8-122814591.332 8
 90  3  1  9 41 14.0800000  0  4G 3G16G19G13
  20146191.800    20146195.990   -18135987.138 9  21075263.258 8
  21701353.660    21701357.851   -22885817.758 9  19758639.175 8
  22473606.329    22473611.432    16872413.329 7 -19380412.991 8
  21685878.738    21685881.072    79138863.704 9-122799630.286 7
 90  3  1  9 41 29.0800000  0  4G 3G16G19G13
  20144373.973    20144376.185   -18145542.550 9  21067817.490 8
  21690949.539    21690953.932   -22940489.195 9  19716038.076 9
  22478557.468    22478560.950    16898428.417 7 -19360141.519 9
  21689536.935    21689540.963    79158088.322 9-122784650.059 7
 90  3  1  9 41 44.0800000  0  4G 3G16G19G13
  20142562.199    20142565.379   -18155063.189 9  21060398.816 8
  21680554.811    21680558.811   -22995113.421 9  19673473.764 9
  22483520.067    22483524.725    16924508.830 8 -19339819.127 8
  21693198.969    21693204.218    79177337.701 8-122769650.554 8
 90  3  1  9 41 59.0800000  0  4G 3G16G19G13
  20140757.186    20140759.991   -18164549.149 9  21053007.166 8
  21670169.237    21670174.932   -23049690.315 9  19630946.351 8
  22488494.715    22488499.801    16950653.959 8 -19319446.305 8
  21696868.543    21696873.112    79196611.888 9-122754631.699 9
 90  3  1  9 42 14.0800000  0  4G 3G16G19G13
  20138958.710    20138961.567   -18173999.888 9  21045642.961 8
  21659793.633    21659796.817   -23104219.371 9  19588456.197 9
  22493483.672    22493487.784    16976863.547 7 -19299023.265 8
  21700540.061    21700544.246    79215910.976 9-122739593.476 8
 90  3  1  9 42 29.0800000  0  4G 3G16G19G13
  20137167.091    20137169.770   -18183415.788 9  21038305.898 9
  21649425.693    21649430.243   -23158700.158 8  19546003.655 9
  22498482.589    22498486.842    17003137.265 8 -19278550.259 8
  21704217.942    21704221.695    79235234.990 9-122724535.806 8
 90  3  1  9 42 44.0800000  0  4G 3G16G19G13
  20135382.248    20135385.529   -18192796.200 9  21030996.491 8
  21639067.597    21639071.783   -23213132.156 9  19503589.133 8
  22503493.809    22503498.667    17029475.015 8 -19258027.356 8
  21707899.361    21707904.403    79254584.195 8-122709458.500 7
 90  3  1  9 42 59.0800000  0  4G 3G16G19G13
  20133603.587    20133606.187   -18202141.221 9  21023714.656 8
  21628718.724    21628722.364   -23267515.119 9  19461212.808 9
  22508517.853    22508523.111    17055876.590 8 -19237454.725 7
  21711587.259    21711590.251    79273958.786 9-122694361.426 8
 90  3  1  9 43 14.0800000  0  4G 3G16G19G13
  20131831.033    20131834.401   -18211450.935 9  21016460.323 8
  21618379.703    21618383.580   -23321848.718 9  19418874.972 8
  22513553.228    22513558.458    17082341.281 8 -19216832.902 7
  21715278.456    21715281.949    79293358.752 8-122679244.571 8
 90  3  1  9 43 29.0800000  0  4G 3G16G19G13
  20130066.458    20130069.489   -18220725.287 9  21009233.554 8
  21608050.239    21608053.831   -23376132.861 8  19376575.648 8
  22518602.196    22518606.108    17108868.480 7 -19196162.385 7
  21718974.523    21718978.631    79312783.755 8-122664108.221 8
 90  3  1  9 43 44.0800000  0  4G 3G16G19G13
  20128309.312    20128311.926   -18229963.969 9  21002034.571 7
  21597729.676    21597733.141   -23430366.851 9  19334315.422 8
  22523661.282    22523665.009    17135457.906 8 -19175443.345 8
  21722675.967    21722679.541    79332234.200 9-122648952.036 8
 90  3  1  9 43 59.0800000  0  4G 3G16G19G13
  20126557.186    20126560.566   -18239167.175 8  20994863.256 8
  21587418.308    21587422.581   -23484550.459 9  19292094.444 9
  22528732.046    22528737.961    17162109.320 8 -19154676.038 7
  21726382.355    21726386.173    79351710.343 9-122633775.829 8
 90  3  1  9 44 14.0800000  0  4G 3G16G19G13
  20124813.028    20124817.087   -18248334.367 9  20987719.989 8
  21577118.015    21577121.420   -23538683.106 9  19249913.182 8
  22533816.946    22533822.475    17188822.420 8 -19133860.643 8
  21730094.407    21730097.818    79371212.184 9-122618579.607 8
 90  3  1  9 44 29.0800000  0  4G 3G16G19G13
  20123075.451    20123078.453   -18257465.370 9  20980604.912 8
  21566826.150    21566829.842   -23592764.339 9  19207771.989 8
  22538912.607    22538916.290    17215597.223 8 -19112997.155 8
  21733809.120    21733813.449    79390739.840 8-122603363.264 8
 90  3  1  9 44 44.0800000  0  4G 3G16G19G13
  20121344.864    20121347.938   -18266560.508 9  20973517.801 7
  21556544.681    21556549.479   -23646794.147 9  19165670.853 9
  22544018.913    22544023.325    17242433.181 9 -19092086.022 8
  21737530.056    21737533.896    79410293.265 8-122588126.842 8
 90  3  1  9 44 59.0800000  0  4G 3G16G19G13
  20119621.115    20119624.424   -18275619.521 9  20966458.833 9
  21546273.514    21546276.467   -23700772.163 9  19123610.080 9
  22549137.110    22549141.724    17269329.985 8 -19071127.472 8
  21741255.616    21741259.430    79429872.471 9-122572870.319 8
 90  3  1  9 45 14.0800000  0  4G 3G16G19G13
  20117904.201    20117907.006   -18284642.426 9  20959427.996 8
  21536011.675    21536014.923   -23754697.890 9  19081590.047 9
  22554266.653    22554271.710    17296286.904 8 -19050122.098 8
  21744986.449    21744991.062    79449477.712 8-122557593.524 9
 90  3  1  9 45 29.0800000  0  4G 3G16G19G13
  20116193.898    20116196.956   -18293628.936 9  20952425.524 8
  21525759.398    21525762.916   -23808570.869 9  19039611.119 8
  22559407.818    22559412.716    17323303.913 8 -19029069.906 8
  21748722.467    21748727.106    79469109.213 9-122542296.259 8
 90  3  1  9 45 44.0800000  0  4G 3G16G19G13
  20114490.259    20114493.762   -18302579.234 9  20945451.273 9
  21515517.528    21515521.069   -23862390.899 9  18997673.446 9
  22564561.917    22564564.797    17350380.487 9 -19007971.286 8
  21752463.025    21752467.223    79488766.978 9-122526978.529 7
 90  3  1  9 45 59.0800000  0  4G 3G16G19G13
  20112793.869    20112798.326   -18311493.162 9  20938505.351 8
  21505286.712    21505289.459   -23916157.716 9  18955777.245 8
  22569723.800    22569728.613    17377516.101 9 -18986826.654 8
  21756208.857    21756213.455    79508450.686 9-122511640.581 8
 90  3  1  9 46 14.0800000  0  4G 3G16G19G13
  20111105.539    20111108.770   -18320370.371 9  20931588.043 9
  21495064.962    21495069.842   -23969870.693 9  18913923.005 8
  22574898.663    22574904.046    17404710.728 9 -18965636.043 7
  21759959.579    21759963.358    79528160.699 9-122496282.136 9
 90  3  1  9 46 29.0800000  0  4G 3G16G19G13
  20109423.790    20109425.885   -18329211.001 8  20924699.246 8
  21484854.529    21484857.843   -24023529.847 9  18872110.686 9
  22580086.087    22580089.125    17431963.630 8 -18944400.024 7
  21763715.324    21763719.281    79547896.958 9-122480903.247 9
 90  3  1  9 46 44.0800000  0  4G 3G16G19G13
  20107747.479    20107750.704   -18338015.155 9  20917838.849 8
  21474652.999    21474657.198   -24077134.502 9  18830340.845 8
  22585282.484    22585286.682    17459274.657 8 -18923118.729 7
  21767476.536    21767480.301    79567659.633 9-122465503.775 8
 90  3  1  9 46 59.0800000  0  4G 3G16G19G13
  20106079.659    20106082.094   -18346782.472 9  20911007.172 7
  21464463.109    21464467.107   -24130684.507 9  18788613.580 8
  22590491.474    22590494.341    17486643.396 9 -18901792.453 8
  21771242.372    21771245.564    79587448.916 9-122450083.546 9
 90  3  1  9 47 14.0800000  0  4G 3G16G19G13
  20104417.470    20104420.730   -18355512.867 9  20904204.261 8
  21454283.692    21454286.647   -24184179.417 9  18746929.262 8
  22595709.490    22595713.619    17514069.336 8 -18880421.616 8
  21775013.130    21775016.662    79607264.633 9-122434642.742 8
 90  3  1  9 47 29.0800000  0  4G 3G16G19G13
  20102763.803    20102766.854   -18364206.144 9  20897430.279 7
  21444114.263    21444118.547   -24237618.915 9  18705288.114 9
  22600940.116    22600943.456    17541552.412 8 -18859006.242 7
  21778789.563    21778792.723    79627107.089 9-122419181.095 8
 90  3  1  9 47 44.0800000  0  4G 3G16G19G13
  20101115.921    20101120.289   -18372862.074 8  20890685.393 9
  21433955.810    21433959.495   -24291002.258 9  18663690.720 9
  22606181.344    22606184.998    17569092.442 9 -18837546.463 7
  21782569.576    21782573.728    79646976.633 9-122403698.339 8
 90  3  1  9 47 59.0800000  0  4G 3G16G19G13
  20099476.105    20099479.034   -18381480.763 9  20883969.538 8
  21423808.588    21423812.586   -24344329.408 9  18622137.119 9
  22611431.186    22611435.843    17596688.861 9 -18816042.777 7
  21786356.449    21786359.910    79666873.110 9-122388194.603 8
 90  3  1  9 48 14.0800000  0  4G 3G16G19G13
  20097843.673    20097846.234   -18390061.998 9  20877282.847 9
  21413670.359    21413675.240   -24397599.797 9  18580627.741 9
  22616693.534    22616698.302    17624341.184 9 -18794495.520 8
  21790148.223    21790151.153    79686796.641 9-122372669.773 8
 90  3  1  9 48 29.0800000  0  4G 3G16G19G13
  20096217.847    20096220.577   -18398605.447 9  20870625.611 8
  21403544.460    21403548.295   -24450812.980 9  18539162.944 8
  22621966.643    22621970.469    17652049.286 9 -18772904.771 7
  21793943.021    21793947.830    79706747.606 9-122357123.570 8
 90  3  1  9 48 44.0800000  0  4G 3G16G19G13
  20094599.259    20094601.981   -18407110.990 9  20863997.919 8
  21393429.507    21393433.392   -24503968.669 9  18497742.946 9
  22627250.211    22627254.196    17679813.001 9 -18751270.700 7
  21797746.124    21797748.867    79726725.965 9-122341556.039 8
 90  3  1  9 48 59.0800000  0  4G 3G16G19G13
  20092987.448    20092990.528   -18415578.915 9  20857399.540 8
  21383325.685    21383328.884   -24557066.562 9  18456367.987 9
  22632543.411    22632548.825    17707631.568 9 -18729593.923 7
  21801552.821    21801557.186    79746731.517 9-122325967.297 9
 90  3  1  9 49 14.0800000  0  4G 3G16G19G13
  20091383.554    20091385.752   -18424009.157 9  20850830.512 8
  21373232.154    21373235.917   -24610106.454 9  18415038.216 9
  22637847.799    22637851.296    17735504.483 9 -18707874.773 7
  21805364.993    21805368.069    79766764.344 9-122310357.308 8
 90  3  1  9 49 29.0800000  0  4G 3G16G19G13
  20089786.444    20089789.533   -18432401.537 9  20844291.014 8
  21363150.116    21363154.001   -24663088.084 9  18373753.849 9
  22643161.876    22643165.843    17763431.397 9 -18686113.551 7
  21809182.277    21809186.315    79786824.304 9-122294726.172 9
 90  3  1  9 49 44.0800000  0  4G 3G16G19G13
  20088196.016    20088199.817   -18440756.016 9  20837781.034 8
  21353079.346    21353082.822   -24716011.142 9  18332515.117 9
  22648487.280    22648489.461    17791412.097 9 -18664310.405 7
  21813004.964    21813009.150    79806911.776 9-122279073.609 8
 90  3  1  9 49 59.0800000  0  4G 3G16G19G13
  20086614.255    20086616.587   -18449072.379 9  20831300.760 7
  21343019.394    21343023.557   -24768875.013 9  18291322.504 9
  22653821.719    22653824.268    17819445.902 9 -18642465.869 7
  21816832.693    21816836.917    79827026.794 9-122263399.567 8
 90  3  1  9 50 14.0800000  0  4G 3G16G19G13
  20085038.784    20085041.622   -18457350.817 8  20824850.019 7
  21332971.156    21332975.012   -24821679.614 9  18250176.080 9
  22659165.930    22659169.608    17847532.648 9 -18620580.104 7
  21820665.247    21820669.152    79847169.504 9-122247703.966 9
 90  3  1  9 50 29.0800000  0  4G 3G16G19G13
  20083470.448    20083473.839   -18465591.167 9  20818428.970 9
  21322933.696    21322937.463   -24874424.570 9  18209076.142 8
  22664520.925    22664524.086    17875671.806 9 -18598653.504 9
  21824504.050    21824508.086    79867339.650 9-122231986.988 9
 90  3  1  9 50 44.0800000  0  4G 3G16G19G13
  20081909.584    20081912.195   -18473792.891 9  20812038.024 8
  21312908.762    21312912.512   -24927109.350 9  18168023.081 9
  22669885.255    22669888.218    17903863.381 9 -18576686.050 6
  21828347.719    21828351.092    79887537.617 9-122216248.308 8
 90  3  1  9 50 59.0800000  0  4G 3G16G19G13
  20080355.909    20080359.297   -18481956.013 9  20805677.156 7
  21302894.473    21302897.874   -24979733.338 9  18127017.399 8
  22675259.732    22675263.940    17932107.304 9 -18554677.811 7
  21832196.939    21832200.778    79907763.667 9-122200487.777 9
 90  3  1  9 51 14.0800000  0  4G 3G16G19G13
  20078810.170    20078813.306   -18490080.491 9  20799346.392 7
  21292891.615    21292895.623   -25032296.519 9  18086059.090 9
  22680644.690    22680649.478    17960402.726 9 -18532629.438 7
  21836049.882    21836053.609    79928017.454 9-122184705.607 8
 90  3  1  9 51 29.0800000  0  4G 3G16G19G13
  20077272.145    20077275.500   -18498166.322 9  20793045.741 9
  21282901.283    21282905.380   -25084798.689 9  18045148.328 8
  22686038.998    22686042.517    17988749.205 8 -18510541.282 7
  21839909.576    21839913.857    79948299.187 9-122168901.687 8
 90  3  1  9 51 44.0800000  0  4G 3G16G19G13
  20075740.688    20075743.268   -18506213.509 9  20786775.215 8
  21272922.662    21272925.193   -25137239.282 9  18004285.544 8
  22691443.082    22691446.164    18017146.450 9 -18488413.573 7
  21843774.528    21843779.182    79968608.960 9-122153075.889 9
 90  3  1  9 51 59.0800000  0  4G 3G16G19G13
  20074215.619    20074219.252   -18514221.831 9  20780534.962 9
  21262955.222    21262957.787   -25189617.988 9  17963470.982 9
  22696855.500    22696860.997    18045593.905 9 -18466246.704 8
  21847644.802    21847649.849    79988946.969 9-122137228.099 8
 90  3  1  9 52 14.0800000  0  4G 3G16G19G13
  20072699.328    20072703.079   -18522191.234 8  20774325.037 8
  21252999.542    21253003.060   -25241934.746 9  17922704.694 7
  22702279.126    22702282.400    18074091.189 9 -18444041.048 7
  21851521.381    21851523.735    80009313.026 9-122121358.456 8
 90  3  1  9 52 29.0800000  0  4G 3G16G19G13
  20071191.311    20071194.518   -18530121.587 9  20768145.542 8
  21243056.038    21243059.316   -25294188.815 9  17881987.251 8
  22707710.442    22707714.850    18102638.104 9 -18421796.698 7
  21855401.310    21855405.189    80029707.300 8-122105466.826 9
 90  3  1  9 52 44.0800000  0  4G 3G16G19G13
  20069688.858    20069693.110   -18538012.872 9  20761996.493 8
  21233124.142    21233127.860   -25346379.973 9  17841318.834 8
  22713152.608    22713158.398    18131234.219 9 -18399514.022 8
  21859287.430    21859291.213    80050129.871 9-122089553.147 9
 90  3  1  9 52 59.0800000  0  4G 3G16G19G13
  20068194.963    20068197.572   -18545864.907 9  20755878.036 7
  21223204.123    21223207.200   -25398507.977 9  17800699.631 8
  22718603.851    22718607.732    18159879.410 8 -18377193.105 8
  21863179.396    21863183.595    80070581.072 9-122073617.163 8
 90  3  1  9 53 14.0800000  0  4G 3G16G19G13
  20066708.453    20066711.878   -18553677.330 9  20749790.423 8
  21213296.672    21213299.321   -25450572.047 9  17760130.236 8
  22724063.391    22724067.217    18188573.198 8 -18354834.337 8
  21867076.569    21867081.550    80091061.190 8-122057658.628 9
 90  3  1  9 53 29.0800000  0  4G 3G16G19G13
  20065229.381    20065231.759   -18561450.185 9  20743733.658 8
  21203401.439    21203404.863   -25502572.188 9  17719610.660 8
  22729533.297    22729537.440    18217314.958 8 -18332438.168 8
  21870978.840    21870983.547    80111569.910 9-122041677.809 8
 90  3  1  9 53 44.0800000  0  4G 3G16G19G13
  20063757.911    20063761.888   -18569183.406 9  20737707.783 8
  21193518.973    21193521.705   -25554507.921 9  17679141.269 9
  22735011.260    22735014.884    18246104.683 8 -18310004.643 8
  21874887.166    21874891.678    80132107.457 9-122025674.542 8
 90  3  1  9 53 59.0800000  0  4G 3G16G19G13
  20062293.607    20062297.515   -18576876.726 9  20731712.999 8
  21183647.373    21183651.269   -25606378.826 9  17638722.391 8
  22740499.347    22740504.784    18274941.986 8 -18287534.019 8
  21878801.123    21878805.161    80152673.835 9-122009648.806 9
 90  3  1  9 54 14.0800000  0  4G 3G16G19G13
  20060837.575    20060840.239   -18584530.154 9  20725749.306 8
  21173789.399    21173793.604   -25658184.506 9  17598354.344 8
  22745995.731    22746000.490    18303826.566 8 -18265026.573 8
  21882720.745    21882724.367    80173269.157 9-121993600.506 8
 90  3  1  9 54 29.0800000  0  4G 3G16G19G13
  20059388.598    20059391.887   -18592143.708 9  20719816.662 8
  21163943.427    21163946.567   -25709925.029 9  17558037.072 9
  22751500.132    22751505.052    18332757.547 9 -18242482.980 8
  21886645.156    21886649.048    80193893.292 8-121977529.758 9
 90  3  1  9 54 44.0800000  0  4G 3G16G19G13
  20057947.002    20057949.381   -18599717.449 9  20713915.059 8
  21154110.278    21154114.384   -25761599.938 9  17517770.931 8
  22757014.875    22757019.837    18361734.716 7 -18219903.386 7
  21890574.994    21890578.806    80214546.263 9-121961436.540 9
 90  3  1  9 54 59.0800000  0  4G 3G16G19G13
  20056513.508    20056516.396   -18607250.937 9  20708044.817 8
  21144288.875    21144293.241   -25813208.774 9  17477556.266 8
  22762538.043    22762543.054    18390757.524 8 -18197288.219 8
  21894510.070    21894514.490    80235228.205 9-121945320.758 8
 90  3  1  9 55 14.0800000  0  4G 3G16G19G13
  20055088.122    20055090.545   -18614744.206 9  20702205.909 8
  21134481.014    21134484.518   -25864751.205 9  17437393.352 8
  22768068.366    22768074.250    18419825.993 7 -18174637.472 8
  21898451.518    21898456.521    80255939.357 9-121929182.213 8
 90  3  1  9 55 29.0800000  0  4G 3G16G19G13
  20053669.396    20053671.644   -18622196.875 9  20696398.635 7
  21124685.136    21124689.309   -25916226.507 9  17397282.735 7
  22773610.726    22773614.096    18448939.875 8 -18151951.367 9
  21902398.213    21902403.249    80276679.983 8-121913020.697 8
 90  3  1  9 55 44.0800000  0  4G 3G16G19G13
  20052259.984    20052261.706   -18629608.938 9  20690622.995 8
  21114902.951    21114906.859   -25967634.561 9  17357224.524 8
  22779159.341    22779163.016    18478098.677 9 -18129230.237 8
  21906350.869    21906355.324    80297450.174 8-121896836.150 8
 90  3  1  9 55 59.0800000  0  4G 3G16G19G13
  20050855.552    20050858.999   -18636980.387 9  20684879.005 8
  21105133.236    21105136.251   -26018975.202 9  17317218.852 9
  22784715.738    22784720.929    18507301.997 8 -18106474.419 8
  21910308.679    21910312.978    80318249.843 9-121880628.640 9
 90  3  1  9 56 14.0800000  0  4G 3G16G19G13
  20049461.133    20049464.024   -18644311.162 9  20679166.706 8
  21095376.341    21095380.363   -26070248.039 9  17277266.008 8
  22790282.019    22790285.688    18536549.159 8 -18083684.418 7
  21914272.610    21914277.136    80339078.828 9-121864398.282 8
 90  3  1  9 56 29.0800000  0  4G 3G16G19G13
  20048074.581    20048076.575   -18651601.182 9  20673486.173 8
  21085631.964    21085636.690   -26121452.714 9  17237366.280 9
  22795855.902    22795859.884    18565840.187 9 -18060860.256 9
  21918242.810    21918246.232    80359937.539 8-121848144.750 9
 90  3  1  9 56 44.0800000  0  4G 3G16G19G13
  20046694.520    20046697.060   -18658850.059 9  20667837.698 8
  21075901.490    21075904.831   -26172588.784 9  17197520.012 8
  22801436.982    22801441.871    18595174.536 8 -18038002.352 8
  21922215.883    21922221.273    80380826.035 8-121831868.000 8
 90  3  1  9 56 59.0800000  0  4G 3G16G19G13
  20045323.213    20045325.666   -18666057.850 9  20662221.241 8
  21066183.342    21066187.631   -26223655.959 9  17157727.428 9
  22807027.919    22807032.870    18624551.590 9 -18015111.165 8
  21926196.441    21926202.436    80401744.048 9-121815568.263 7
 90  3  1  9 57 14.0800000  0  4G 3G16G19G13
  20043959.247    20043961.564   -18673224.720 9  20656636.678 8
  21056479.569    21056482.157   -26274653.937 9  17117988.760 8
  22812625.320    22812630.665    18653971.082 9 -17992186.895 8
  21930183.289    21930187.779    80422691.879 9-121799245.292 8
 90  3  1  9 57 29.0800000  0  4G 3G16G19G13
  20042603.205    20042606.288   -18680350.346 9  20651084.239 8
  21046787.621    21046791.480   -26325582.595 9  17078304.115 8
  22818231.599    22818237.356    18683432.946 9 -17969229.605 8
  21934175.458    21934179.652    80443669.631 8-121782899.009 8
 90  3  1  9 57 44.0800000  0  4G 3G16G19G13
  20041255.121    20041258.963   -18687434.523 9  20645564.103 8
  21037109.622    21037113.435   -26376441.192 9  17038674.050 8
  22823847.402    22823851.704    18712936.679 9 -17946239.685 8
  21938173.656    21938177.268    80464677.228 8-121766529.462 7
 90  3  1  9 57 59.0800000  0  4G 3G16G19G13
  20039914.023    20039917.962   -18694477.182 9  20640076.319 7
  21027444.504    21027447.163   -26427229.557 9  16999098.727 9
  22829469.276    22829473.750    18742481.801 9 -17923217.528 9
  21942176.928    21942180.542    80485715.026 8-121750136.390 8
 90  3  1  9 58 14.0800000  0  4G 3G16G19G13
  20038582.837    20038586.113   -18701478.068 9  20634621.082 8
  21017792.387    21017797.330   -26477947.238 9  16959578.474 8
  22835099.571    22835104.281    18772067.877 8 -17900163.467 8
  21946184.581    21946190.533    80506783.132 8-121733719.690 8
 90  3  1  9 58 29.0800000  0  4G 3G16G19G13
  20037258.289    20037261.367   -18708437.169 9  20629198.405 8
  21008155.240    21008158.784   -26528593.914 9  16920113.541 9
  22840736.763    22840741.890    18801694.729 9 -17877077.618 8
  21950200.188    21950206.003    80527881.725 8-121717279.246 8
 90  3  1  9 58 44.0800000  0  4G 3G16G19G13
  20035942.302    20035944.727   -18715354.193 9  20623808.508 8
  20998531.275    20998536.270   -26579169.091 9  16880704.328 9
  22846382.848    22846386.627    18831362.120 9 -17853960.185 8
  21954220.842    21954225.091    80549010.743 8-121700815.090 8
 90  3  1  9 58 59.0800000  0  4G 3G16G19G13
  20034633.411    20034636.121   -18722229.199 9  20618451.358 9
  20988921.009    20988925.427   -26629672.572 9  16841350.983 8
  22852036.033    22852039.890    18861069.478 9 -17830811.595 8
  21958247.709    21958252.662    80570170.158 8-121684327.250 8
 90  3  1  9 59 14.0800000  0  4G 3G16G19G13
  20033333.393    20033336.617   -18729061.899 9  20613127.177 7
  20979324.011    20979328.577   -26680103.896 9  16802053.862 9
  22857696.251    22857701.659    18890816.461 9 -17807632.149 8
  21962279.532    21962284.830    80591360.277 8-121667815.482 7
 90  3  1  9 59 29.0800000  0  4G 3G16G19G13
  20032040.656    20032044.635   -18735852.337 9  20607835.926 7
  20969741.228    20969745.196   -26730462.768 9  16762813.210 9
  22863364.297    22863368.379    18920602.643 9 -17784422.133 8
  21966319.008    21966322.948    80612580.950 9-121651279.900 8
 90  3  1  9 59 44.0800000  0  4G 3G16G19G13
  20030757.450    20030759.815   -18742600.598 9  20602577.537 8
  20960171.953    20960177.017   -26780749.110 9  16723629.060 8
  22869039.879    22869044.037    18950427.316 9 -17761182.138 8
  21970362.472    21970367.000    80633831.941 8-121634720.703 8
 90  3  1  9 59 59.0800000  0  4G 3G16G19G13
  20029481.668    20029484.580   -18749306.245 9  20597352.352 8
  20950616.910    20950620.342   -26830962.370 9  16684501.855 9
  22874723.152    22874727.967    18980290.532 9 -17737912.099 7
  21974411.726    21974416.251    80655113.652 8-121618137.574 7
 90  3  1 10  0 14.0800000  0  4G 3G16G19G13
  20028213.889    20028217.327   -18755969.150 9  20592160.490 7
  20941075.326    20941079.574   -26881102.215 9  16645431.869 8
  22880413.447    22880417.639    19010191.994 9 -17714612.255 8
  21978468.182    21978471.571    80676426.343 7-121601530.296 8
 90  3  1 10  0 29.0800000  0  4G 3G16G19G13
  20026953.237    20026956.285   -18762589.142 9  20587002.055 7
  20931548.561    20931551.941   -26931168.234 9  16606419.418 8
  22886110.027    22886113.928    19040131.307 9 -17691282.923 8
  21982529.073    21982533.488    80697770.074 9-121584898.847 7
 90  3  1 10  0 44.0800000  0  4G 3G16G19G13
  20025701.437    20025705.858   -18769166.210 9  20581877.060 8
  20922034.559    20922038.595   -26981160.179 9  16567464.671 9
  22891814.460    22891818.427    19070108.060 9 -17667924.426 8
  21986596.385    21986601.741    80719144.903 8-121568243.152 9
 90  3  1 10  0 59.0800000  0  4G 3G16G19G13
  20024458.637    20024462.418   -18775700.134 9  20576785.707 8
  20912536.128    20912540.256   -27031077.374 9  16528568.155 9
  22897526.554    22897530.771    19100122.061 9 -17644536.902 8
  21990670.488    21990673.758    80740550.847 9-121551563.197 8
 90  3  1 10  1 14.0800000  0  4G 3G16G19G13
  20023223.012    20023226.535   -18782191.032 9  20571727.877 7
  20903051.145    20903054.881   -27080919.714 9  16489729.987 8
  22903244.970    22903249.284    19130172.746 9 -17621120.766 8
  21994749.688    21994753.619    80761987.949 8-121534858.981 8
 90  3  1 10  1 29.0800000  0  4G 3G16G19G13
  20021996.055    20022000.006   -18788638.740 9  20566703.695 9
  20893581.353    20893584.348   -27130687.008 9  16450950.299 9
  22908970.155    22908974.061    19160259.722 9 -17597676.383 7
  21998835.095    21998840.358    80783456.223 9-121518130.478 7
 90  3  1 10  1 44.0800000  0  4G 3G16G19G13
  20020778.198    20020780.837   -18795042.899 9  20561713.436 8
  20884124.723    20884128.067   -27180378.716 9  16412229.503 9
  22914702.206    22914706.921    19190382.445 9 -17574204.143 8
  22002924.948    22002929.874    80804956.058 9-121501377.368 7
 90  3  1 10  1 59.0800000  0  4G 3G16G19G13
  20019567.227    20019570.933   -18801403.675 9  20556756.991 8
  20874683.291    20874687.886   -27229994.603 9  16373567.776 8
  22920441.421    22920445.600    19220540.500 9 -17550704.364 8
  22007023.825    22007028.441    80826487.397 9-121484599.720 8
 90  3  1 10  2 14.0800000  0  4G 3G16G19G13
  20018365.126    20018368.020   -18807720.845 9  20551834.514 8
  20865256.178    20865260.172   -27279534.336 9  16334965.408 8
  22926187.225    22926190.922    19250733.729 9 -17527177.179 7
  22011127.129    22011130.957    80848050.358 8-121467797.429 8
 90  3  1 10  2 29.0800000  0  4G 3G16G19G13
  20017172.036    20017175.033   -18813994.203 8  20546946.170 7
  20855843.732    20855847.373   -27328997.470 9  16296422.715 9
  22931938.662    22931944.244    19280961.947 9 -17503622.716 8
  22015237.065    22015240.149    80869644.878 9-121450970.550 7
 90  3  1 10  2 44.0800000  0  4G 3G16G19G13
  20015986.091    20015987.999   -18820223.611 9  20542092.072 8
  20846446.321    20846449.794   -27378383.717 9  16257939.945 8
  22937697.752    22937702.190    19311224.686 9 -17480041.357 8
  22019351.510    22019355.687    80891271.013 9-121434119.025 8
 90  3  1 10  2 59.0800000  0  4G 3G16G19G13
  20014809.174    20014812.499   -18826408.793 9  20537272.460 8
  20837063.131    20837066.621   -27427692.582 9  16219517.462 9
  22943462.991    22943466.645    19341521.588 9 -17456433.385 8
  22023472.931    22023476.547    80912929.072 9-121417242.635 8
 90  3  1 10  3 14.0800000  0  4G 3G16G19G13
  20013641.458    20013643.293   -18832549.488 9  20532487.495 8
  20827694.391    20827698.124   -27476923.594 9  16181155.664 8
  22949235.732    22949238.595    19371852.333 9 -17432799.043 6
  22027600.978    22027604.311    80934619.484 9-121400341.032 7
 90  3  1 10  3 29.0800000  0  4G 3G16G19G13
  20012480.767    20012483.705   -18838645.674 9  20527737.220 8
  20818340.523    20818344.234   -27526076.301 9  16142854.863 9
  22955013.498    22955016.132    19402216.704 9 -17409138.501 8
  22031733.978    22031738.498    80956342.292 9-121383414.187 7
 90  3  1 10  3 44.0800000  0  4G 3G16G19G13
  20011329.092    20011331.498   -18844697.343 9  20523021.627 8
  20809002.613    20809006.215   -27575150.802 9  16104615.005 9
  22960797.188    22960801.475    19432613.985 9 -17385452.310 7
  22035873.925    22035878.854    80978097.084 9-121366462.418 8
 90  3  1 10  3 59.0800000  0  4G 3G16G19G13
  20010185.631    20010189.739   -18850704.618 9  20518340.636 8
  20799679.344    20799681.698   -27624146.654 9  16066436.436 8
  22966587.766    22966592.204    19463043.885 8 -17361740.725 7
  22040020.662    22040023.474    80999884.045 9-121349485.579 9
 90  3  1 10  4 14.0800000  0  4G 3G16G19G13
  20009051.596    20009054.077   -18856667.072 9  20513694.573 8
  20790370.101    20790373.294   -27673063.565 9  16028319.371 8
  22972383.832    22972387.754    19493506.092 8 -17338003.911 7
  22044171.990    22044176.174    81021703.294 9-121332483.589 8
 90  3  1 10  4 29.0800000  0  4G 3G16G19G13
  20007925.766    20007928.170   -18862584.606 9  20509083.502 9
  20781077.317    20781080.103   -27721901.054 9  15990264.199 8
  22978188.070    22978192.650    19524000.264 8 -17314242.231 8
  22048330.487    22048334.982    81043555.060 9-121315456.258 8
 90  3  1 10  4 44.0800000  0  4G 3G16G19G13
  20006807.715    20006811.165   -18868457.170 9  20504507.483 8
  20771797.920    20771801.776   -27770658.791 9  15952271.176 8
  22983994.695    22983999.938    19554525.853 8 -17290456.069 7
  22052494.836    22052498.644    81065439.483 9-121298403.471 8
 90  3  1 10  4 59.0800000  0  4G 3G16G19G13
  20005699.193    20005700.971   -18874284.487 9  20499966.723 8
  20762534.959    20762539.573   -27819336.469 9  15914340.527 8
  22989810.924    22989815.750    19585082.641 9 -17266645.573 7
  22056666.337    22056669.230    81087356.378 9-121281325.372 7
 90  3  1 10  5 14.0800000  0  4G 3G16G19G13
  20004598.717    20004601.052   -18880066.312 9  20495461.416 9
  20753287.194    20753290.678   -27867933.711 9  15876472.564 8
  22995630.763    22995635.295    19615670.185 8 -17242811.142 6
  22060842.875    22060847.191    81109305.914 9-121264221.861 8
 90  3  1 10  5 29.0800000  0  4G 3G16G19G13
  20003506.294    20003509.774   -18885802.871 9  20490991.360 8
  20744054.989    20744058.834   -27916450.285 9  15838667.454 8
  23001457.501    23001461.286    19646288.273 8 -17218952.899 6
  22065025.892    22065029.490    81131288.091 9-121247092.919 8
 90  3  1 10  5 44.0800000  0  4G 3G16G19G13
  20002423.777    20002425.938   -18891493.929 9  20486556.776 8
  20734837.603    20734841.590   -27964885.853 9  15800925.481 8
  23007290.248    23007295.074    19676936.573 8 -17195071.115 7
  22069214.947    22069219.001    81153303.251 9-121229938.273 8
 90  3  1 10  5 59.0800000  0  4G 3G16G19G13
  20001349.784    20001353.033   -18897139.237 9  20482157.835 8
  20725636.777    20725641.197   -28013239.897 9  15763247.015 9
  23013128.355    23013132.219    19707614.659 8 -17171166.118 6
  22073410.496    22073414.494    81175351.196 9-121212758.067 8
 90  3  1 10  6 14.0800000  0  4G 3G16G19G13
  20000283.921    20000287.169   -18902738.805 9  20477794.520 9
  20716450.084    20716453.494   -28061512.405 9  15725632.085 9
  23018970.857    23018976.230    19738322.021 7 -17147238.294 7
  22077612.497    22077616.897    81197431.866 9-121195552.363 8
 90  3  1 10  6 29.0800000  0  4G 3G16G19G13
  19999227.669    19999229.838   -18908292.341 9  20473467.100 8
  20707280.330    20707284.094   -28109702.713 9  15688081.214 8
  23024821.267    23024825.001    19769058.297 7 -17123287.952 7
  22081819.572    22081824.341    81219545.577 9-121178320.924 8
 90  3  1 10  6 44.0800000  0  4G 3G16G19G13
  19998179.566    19998181.344   -18913799.766 9  20469175.591 7
  20698126.053    20698130.137   -28157810.515 9  15650594.627 8
  23030674.747    23030678.516    19799823.233 8 -17099315.291 7
  22086034.448    22086038.640    81241692.640 9-121161063.499 7
 90  3  1 10  6 59.0800000  0  4G 3G16G19G13
  19997139.457    19997143.320   -18919260.845 9  20464920.189 9
  20688986.663    20688990.244   -28205835.452 9  15613172.616 8
  23036533.940    23036539.863    19830616.569 7 -17075320.474 8
  22090255.213    22090260.314    81263872.840 9-121143780.249 8
 90  3  1 10  7 14.0800000  0  4G 3G16G19G13
  19996110.211    19996112.577   -18924675.743 9  20460700.800 7
  20679863.700    20679867.934   -28253777.383 9  15575815.279 7
  23042398.204    23042404.095    19861437.711 8 -17051304.036 7
  22094482.920    22094487.062    81286086.361 9-121126471.017 9
 90  3  1 10  7 29.0800000  0  4G 3G16G19G13
  19995088.335    19995090.182   -18930044.051 9  20456517.700 8
  20670756.348    20670759.915   -28301635.851 9  15538522.984 8
  23048269.184    23048274.956    19892286.377 7 -17027266.111 7
  22098716.229    22098721.278    81308333.322 9-121109135.762 8
 90  3  1 10  7 44.0800000  0  4G 3G16G19G13
  19994075.001    19994077.230   -18935365.847 9  20452370.856 8
  20661665.555    20661669.073   -28349410.799 9  15501295.779 8
  23054145.626    23054150.323    19923162.052 7 -17003207.157 7
  22102955.880    22102960.283    81330613.587 9-121091774.515 9
 90  3  1 10  7 59.0800000  0  4G 3G16G19G13
  19993071.252    19993075.618   -18940640.761 9  20448260.536 7
  20652590.167    20652593.319   -28397101.516 9  15464134.191 8
  23060024.496    23060031.665    19954064.232 8 -16979127.553 8
  22107202.486    22107206.539    81352927.458 9-121074387.106 8
 90  3  1 10  8 14.0800000  0  4G 3G16G19G13
  19992076.178    19992079.470   -18945868.785 9  20444186.764 7
  20643530.957    20643533.797   -28444707.769 9  15427038.434 8
  23065911.206    23065915.694    19984992.816 7 -16955027.351 6
  22111455.971    22111459.255    81375275.078 9-121056973.397 8
 90  3  1 10  8 29.0800000  0  4G 3G16G19G13
  19991090.400    19991094.336   -18951049.760 9  20440149.640 8
  20634488.612    20634490.840   -28492229.299 9  15390008.690 8
  23071802.617    23071805.580    20015947.620 7 -16930906.761 8
  22115714.059    22115718.089    81397656.452 9-121039533.382 9
 90  3  1 10  8 44.0800000  0  4G 3G16G19G13
  19990114.141    19990116.165   -18956183.616 9  20436149.238 9
  20625460.946    20625464.493   -28539665.711 9  15353045.274 9
  23077697.193    23077701.533    20046928.024 7 -16906766.184 8
  22119979.860    22119984.251    81420071.529 9-121022067.106 8
 90  3  1 10  8 59.0800000  0  4G 3G16G19G13
  19989145.695    19989148.949   -18961270.037 9  20432185.794 7
  20616450.590    20616454.028   -28587016.524 9  15316148.550 8
  23083597.385    23083601.423    20077933.722 9 -16882605.891 9
  22124251.823    22124256.146    81442520.675 9-121004574.291 9
 90  3  1 10  9 14.0800000  0  4G 3G16G19G13
  19988187.279    19988189.484   -18966309.168 9  20428259.204 8
  20607456.293    20607459.957   -28634281.763 9  15279318.519 8
  23089503.153    23089506.766    20108964.339 9 -16858426.195 9
  22128530.759    22128534.112    81465003.714 9-120987055.050 9
 90  3  1 10  9 29.0800000  0  4G 3G16G19G13
  19987237.058    19987239.784   -18971300.628 8  20424369.758 8
  20598478.287    20598481.248   -28681460.828 9  15242555.623 9
  23095413.018    23095416.138    20140019.558 8 -16834227.333 8
  22132814.902    22132818.938    81487520.836 9-120969509.250 8
 90  3  1 10  9 44.0800000  0  4G 3G16G19G13
  19986296.017    19986299.324   -18976244.271 9  20420517.578 7
  20589516.786    20589520.093   -28728553.341 9  15205860.187 9
  23101326.953    23101330.979    20171098.960 8 -16810009.638 8
  22137105.895    22137111.077    81510072.236 9-120951936.759 8
 90  3  1 10  9 59.0800000  0  4G 3G16G19G13
  19985365.330    19985368.256   -18981140.001 9  20416702.716 8
  20580571.919    20580576.236   -28775558.871 9  15169232.525 8
  23107245.068    23107250.501    20202202.301 9 -16785773.289 8
  22141403.766    22141407.709    81532657.810 9-120934337.630 8
 90  3  1 10 10 14.0800000  0  4G 3G16G19G13
  19984441.059    19984445.766   -18985987.655 9  20412925.327 7
  20571643.363    20571647.471   -28822477.313 9  15132672.728 8
  23113167.880    23113173.400    20233329.128 9 -16761518.626 8
  22145708.964    22145711.901    81555277.830 8-120916711.657 9
 90  3  1 10 10 29.0800000  0  4G 3G16G19G13
  19983529.002    19983530.980   -18990787.028 9  20409185.557 8
  20562731.704    20562735.764   -28869308.277 9  15096181.086 8
  23119094.939    23119101.009    20264478.828 9 -16737246.144 8
  22150019.139    22150023.082    81577932.253 9-120899058.893 8
 90  3  1 10 10 44.0800000  0  4G 3G16G19G13
  19982624.317    19982627.383   -18995537.958 9  20405483.534 7
  20553837.405    20553839.332   -28916051.403 9  15059757.888 8
  23125027.338    23125032.980    20295651.487 9 -16712955.771 8
  22154337.415    22154341.551    81600621.275 8-120881379.152 9
 90  3  1 10 10 59.0800000  0  4G 3G16G19G13
  19981730.134    19981732.714   -19000240.617 9  20401819.112 7
  20544959.132    20544961.749   -28962706.385 8  15023403.383 8
  23130963.732    23130969.231    20326846.581 9 -16688647.913 8
  22158661.092    22158665.887    81623344.790 9-120863672.544 8
 90  3  1 10 11 14.0800000  0  4G 3G16G19G13
  19980844.598    19980847.091   -19004894.540 9  20398192.671 8
  20536097.597    20536100.718   -29009272.864 9  14987117.829 8
  23136905.325    23136909.031    20358063.764 9 -16664322.842 9
  22162990.910    22162996.564    81646103.008 8-120845938.885 8
 90  3  1 10 11 29.0800000  0  4G 3G16G19G13
  19979968.386    19979969.850   -19009499.381 9  20394604.493 8
  20527252.854    20527255.669   -29055750.454 9  14950901.546 8
  23142850.521    23142853.813    20389302.895 9 -16639980.667 9
  22167328.693    22167333.243    81668896.369 8-120828177.853 7
 90  3  1 10 11 44.0800000  0  4G 3G16G19G13
  19979100.777    19979104.111   -19014055.137 9  20391054.546 8
  20518425.353    20518428.688   -29102138.718 9  14914754.859 8
  23148798.619    23148802.666    20420563.478 9 -16615621.762 8
  22171674.387    22171677.824    81691724.462 8-120810389.741 9
 90  3  1 10 11 59.0800000  0  4G 3G16G19G13
  19978242.456    19978246.020   -19018562.183 8  20387542.552 8
  20509615.392    20509618.376   -29148437.790 9  14878677.692 8
  23154751.375    23154754.288    20451844.721 9 -16591246.793 8
  22176024.065    22176028.776    81714587.167 9-120792574.679 8
 90  3  1 10 12 14.0800000  0  4G 3G16G19G13
  19977395.262    19977398.081   -19023020.319 9  20384068.656 8
  20500821.907    20500824.713   -29194647.297 8  14842670.297 8
  23160707.600    23160712.076    20483146.320 9 -16566855.942 9
  22180380.098    22180384.813    81737484.582 8-120774732.541 8
 90  3  1 10 12 29.0800000  0  4G 3G16G19G13
  19976556.145    19976560.481   -19027429.087 9  20380633.253 8
  20492045.616    20492049.068   -29240766.689 9  14806733.127 9
  23166667.105    23166671.241    20514467.970 9 -16542449.472 9
  22184744.480    22184749.403    81760417.233 8-120756862.971 9
 90  3  1 10 12 44.0800000  0  4G 3G16G19G13
  19975726.753    19975730.175   -19031788.261 9  20377236.477 8
  20483286.767    20483288.809   -29286795.752 9  14770866.328 8
  23172631.294    23172636.040    20545809.411 9 -16518027.580 8
  22189114.441    22189120.863    81783385.020 7-120738966.040 8
